GFSFLT2_850_thetae_000.txt.gz
Theta_e
332 333 331 330 321 323 320 319 320 319 319 319 319 317 317 316 317 320 321 320 318 318 317 320 326 324 325 325 323 323 327 328
328 327 327 326 322 321 324 323 323 321 319 318 318 318 317 316 314 314 315 321 322 322 322 322 324 327 327 327 328 326 323 323
330 325 320 320 323 322 326 325 324 322 321 319 319 319 314 313 312 312 314 314 315 318 320 323 324 326 327 327 327 325 322 319
325 319 317 319 320 327 327 326 325 326 322 318 316 313 313 313 310 310 311 311 308 310 312 318 321 321 320 321 322 323 323 321
322 319 316 314 318 324 327 326 325 324 320 318 317 313 310 311 310 308 311 311 305 310 312 312 317 320 320 320 321 320 321 323
320 318 317 314 318 324 325 327 326 322 322 317 317 311 310 309 305 306 307 305 306 310 311 308 308 309 309 312 315 318 320 320
318 317 316 314 314 318 322 325 324 322 319 317 316 311 311 310 309 308 308 307 307 307 307 307 307 308 307 310 313 314 316 318
317 316 316 314 313 315 319 322 323 322 320 318 313 309 309 309 308 307 307 307 306 306 304 303 303 303 304 305 307 310 314 316
316 316 315 315 313 313 314 315 316 314 312 309 309 308 307 307 307 306 306 306 306 304 304 304 303 303 302 302 303 306 310 312
316 316 315 314 313 312 311 312 313 312 311 310 309 308 308 306 305 307 308 306 305 304 304 305 305 305 304 304 304 303 302 303
316 315 314 313 312 311 310 311 312 311 310 309 308 308 308 306 305 306 306 306 305 306 306 305 303 303 303 303 303 303 303 303
315 314 313 312 311 311 310 309 309 309 309 309 307 308 309 307 305 305 307 306 305 305 305 303 303 302 302 302 302 302 302 303
314 312 312 312 311 311 311 310 309 308 308 307 308 309 308 307 307 305 306 306 305 305 305 303 302 302 302 302 302 302 301 301
314 313 313 313 312 312 311 311 309 309 308 307 306 307 307 307 307 306 305 305 304 304 304 303 303 302 302 302 303 300 300 300
314 313 313 313 313 312 311 311 310 310 309 308 307 307 307 307 307 306 306 305 304 304 304 303 302 301 303 301 300 302 299 300
313 313 313 313 313 312 312 312 311 312 311 309 307 307 306 307 307 306 305 305 304 303 303 302 302 301 300 299 296 299 300 300
313 313 313 313 313 313 313 313 313 312 311 310 308 307 306 305 306 306 306 305 303 302 302 302 302 299 298 298 295 295 294 294
314 314 314 313 313 312 312 311 311 313 312 312 310 308 306 305 305 306 306 304 304 303 303 301 301 300 299 299 296 293 292 293
314 314 313 314 313 312 311 310 309 310 310 309 310 307 307 306 305 305 303 300 301 300 300 300 299 299 299 293 292 292 292 293
313 314 313 312 312 311 309 308 308 307 307 307 308 307 304 302 301 299 298 300 300 298 298 299 299 295 293 292 292 293 293 294

GFSFLT2_850_thetae_003.txt.gz
Theta_e
321 321 318 317 316 317 320 319 319 319 318 318 318 317 316 315 315 315 317 318 320 318 317 318 320 324 324 324 324 324 323 323
324 322 318 315 317 321 324 323 321 320 318 317 317 317 317 314 311 310 312 315 318 320 321 321 323 323 325 326 327 327 324 325
330 325 319 316 315 320 325 325 323 323 321 319 318 317 315 312 311 310 311 312 313 314 317 319 320 322 324 325 326 327 325 324
328 321 317 316 316 318 324 325 324 323 324 319 316 315 311 310 310 309 310 311 310 310 313 313 317 319 320 320 320 321 323 323
325 320 318 316 315 319 321 322 320 322 319 317 315 313 311 308 307 307 307 308 309 306 308 310 311 315 317 320 320 321 321 320
321 319 317 316 314 314 317 319 323 323 320 315 314 312 310 311 312 310 307 307 307 306 307 308 308 307 308 308 308 312 314 318
320 317 316 315 315 312 315 321 323 323 322 319 316 316 312 310 310 309 308 308 308 307 306 306 306 306 306 306 306 308 312 314
317 316 315 315 314 313 314 318 320 321 322 320 318 316 309 308 308 308 308 308 308 307 306 304 304 303 303 303 303 303 304 307
316 316 315 314 313 313 312 314 316 316 314 312 310 309 308 308 307 306 306 307 307 307 305 304 304 305 305 305 305 305 304 303
316 315 314 314 312 312 311 311 310 311 312 311 310 309 308 307 307 306 305 305 305 305 304 305 306 306 305 304 304 304 304 303
315 315 313 312 312 311 311 311 310 309 309 309 309 309 308 308 308 307 304 305 305 305 306 306 306 305 304 304 304 304 303 302
315 313 312 313 312 312 312 312 311 310 310 309 308 308 307 308 309 307 306 305 305 306 306 305 305 304 303 304 304 304 303 302
314 313 313 313 313 312 312 312 312 311 310 309 309 308 308 307 307 307 306 306 306 306 305 305 305 303 302 303 303 303 303 301
313 313 314 313 313 313 313 313 312 312 312 311 309 309 308 308 307 306 306 307 306 306 305 305 304 303 302 301 301 302 302 302
314 313 313 313 313 312 312 312 312 312 312 312 312 310 309 307 306 306 307 307 306 306 305 305 304 304 302 301 300 299 299 300
313 313 313 313 312 313 313 313 313 313 312 310 311 312 310 308 307 306 307 307 306 305 304 304 304 303 301 300 299 297 295 296
313 313 313 313 313 313 313 312 312 311 309 309 310 311 311 308 307 306 307 307 305 304 303 303 302 301 300 298 297 298 299 296
314 314 313 313 313 313 312 311 310 310 308 308 307 307 308 307 307 306 307 305 304 303 300 298 297 297 298 298 298 297 294 292
312 312 312 311 311 310 310 309 308 307 307 306 305 305 305 306 306 305 305 304 303 298 296 296 297 298 299 299 298 299 294 292
311 311 311 311 309 309 307 306 306 306 306 305 304 304 305 304 303 303 302 298 295 297 298 299 299 299 299 298 293 292 291 291

GFSFLT2_850_thetae_006.txt.gz
Theta_e
321 320 319 319 318 319 320 321 319 319 318 318 318 317 316 316 314 312 311 311 314 318 319 319 320 320 323 324 325 326 324 325
325 324 319 316 315 316 319 320 322 320 319 318 317 317 317 315 312 309 309 310 311 312 314 314 314 315 318 321 325 326 326 325
330 325 318 316 315 314 316 317 320 322 322 319 317 317 316 311 310 309 309 310 310 308 308 309 310 313 318 321 323 324 325 325
329 324 319 316 314 314 314 314 314 317 317 319 317 315 314 311 309 309 309 309 309 309 307 308 309 310 313 318 320 319 319 320
330 324 319 316 315 316 314 314 315 317 319 316 315 314 313 311 309 310 310 308 307 308 306 307 310 308 308 310 312 313 312 316
330 321 317 315 315 314 313 314 318 321 322 320 317 315 313 311 310 310 310 309 308 308 306 306 307 307 308 307 307 306 307 309
329 319 316 315 314 313 313 315 318 319 320 320 319 318 317 315 310 308 308 308 308 308 308 307 306 305 304 304 304 304 304 305
323 317 315 315 314 313 313 313 314 315 315 317 318 316 312 309 308 308 307 307 307 308 308 307 305 304 304 304 305 305 306 305
320 316 315 314 313 312 312 311 311 310 311 313 312 311 310 309 308 307 307 306 306 307 307 306 305 304 305 305 305 305 305 305
318 316 315 313 312 311 311 311 311 310 310 309 309 309 308 308 307 307 307 307 305 304 305 305 304 305 306 306 305 304 305 305
316 315 313 312 312 312 312 311 311 311 311 311 310 309 308 308 307 307 307 307 306 305 305 305 306 306 305 305 304 305 305 304
315 314 312 313 313 313 312 312 312 312 312 312 311 310 309 309 308 307 307 307 306 306 305 305 305 305 305 304 304 304 303 304
314 313 313 313 313 313 313 313 312 313 312 312 312 311 311 309 308 308 307 307 306 306 306 306 305 305 305 304 304 303 302 303
313 313 313 313 313 312 312 312 312 312 313 312 312 312 310 310 309 309 308 307 307 306 306 306 306 305 305 304 304 303 303 303
313 313 313 312 312 312 311 312 313 313 312 311 311 309 309 309 310 309 307 307 307 306 307 307 306 306 305 304 302 302 303 301
313 313 312 312 312 313 312 312 311 311 310 309 308 308 308 308 308 309 309 307 307 306 307 307 306 305 305 303 302 301 300 300
312 313 313 313 313 312 311 310 309 309 308 307 307 306 306 307 307 306 307 307 306 307 307 306 306 304 303 300 298 297 297 297
313 313 312 311 311 311 309 307 306 306 305 304 303 304 304 304 304 304 304 306 305 306 305 304 302 301 296 296 295 294 294 294
311 311 311 309 308 307 307 306 304 303 302 301 301 303 303 303 302 303 304 304 303 303 302 300 298 297 298 298 298 298 298 298
311 309 309 308 306 305 304 303 302 301 301 300 300 303 302 302 302 302 302 300 299 298 298 298 297 298 299 299 299 299 296 292

GFSFLT2_850_thetae_009.txt.gz
Theta_e
321 319 316 316 316 317 319 320 319 319 318 317 317 316 316 316 315 313 309 309 310 313 316 318 317 319 320 321 323 325 326 325
324 323 318 316 316 316 315 314 318 319 319 319 317 315 316 316 313 311 309 309 310 309 309 309 310 312 314 318 320 323 325 325
328 324 318 316 315 314 312 311 313 314 316 318 317 315 315 315 311 309 309 309 309 309 309 307 308 309 311 314 318 321 321 322
328 326 319 316 314 314 312 311 313 314 316 315 317 316 314 314 312 309 309 309 309 308 308 308 306 309 309 309 313 317 319 319
329 328 319 315 314 314 313 312 313 315 316 317 317 315 313 313 311 310 310 310 310 308 308 308 306 308 309 308 307 307 307 306
330 329 318 315 314 313 314 315 316 318 317 317 318 318 317 316 315 314 310 308 309 309 308 308 308 307 306 305 304 304 305 305
330 328 318 315 314 313 313 314 315 314 314 314 315 316 315 314 311 309 308 308 307 307 307 308 307 306 305 304 304 304 304 304
329 326 317 315 313 312 312 312 311 311 310 310 311 312 311 311 310 309 308 307 307 307 306 307 306 306 305 304 305 305 305 305
327 324 316 314 312 312 311 311 311 311 311 311 310 309 309 309 308 308 307 307 307 307 306 305 305 305 304 305 305 305 305 304
327 321 315 313 312 312 312 311 311 311 311 311 311 311 310 310 309 309 308 307 307 307 306 305 305 305 305 305 306 305 304 305
325 318 314 312 312 313 312 312 312 312 312 312 311 311 311 311 310 310 309 308 307 307 307 306 306 305 305 305 305 305 304 304
321 316 313 313 313 313 313 313 313 312 312 312 312 311 311 311 311 310 309 308 308 308 307 306 306 305 305 305 305 304 304 304
316 314 313 313 313 312 312 312 312 312 312 312 312 312 312 311 310 310 310 308 308 307 308 307 306 306 306 305 305 305 304 304
313 313 312 311 311 311 311 311 311 312 313 313 311 311 310 309 309 309 309 309 310 308 308 308 307 306 306 306 306 306 304 304
312 312 311 311 311 311 312 312 312 312 312 310 309 308 307 307 307 307 307 307 308 310 308 307 309 307 307 306 306 306 305 303
312 312 312 312 312 311 311 310 309 309 307 306 305 304 304 304 303 304 305 305 305 306 307 307 308 308 306 306 305 305 304 304
312 312 311 311 311 310 309 308 307 305 304 303 302 301 301 300 301 301 302 302 303 303 305 306 305 307 306 305 304 303 301 299
312 311 311 311 310 309 307 305 304 303 302 301 300 300 300 300 300 301 301 302 302 303 304 303 302 302 303 301 302 299 298 296
312 312 311 310 309 307 305 303 302 301 300 299 298 298 299 299 302 301 301 301 302 301 300 298 298 298 298 297 298 297 296 296
311 311 310 308 306 304 303 301 301 300 299 298 298 298 299 301 301 300 300 300 298 297 297 297 297 298 297 298 298 296 296 296

GFSFLT2_850_thetae_012.txt.gz
Theta_e
321 317 317 316 316 316 318 319 319 319 319 318 317 316 316 317 316 314 311 309 310 311 310 310 311 311 312 313 316 319 325 329
324 320 317 316 316 315 315 312 317 318 319 319 317 316 316 316 316 311 310 309 309 310 310 310 308 309 310 312 316 320 324 326
326 326 318 316 315 315 312 311 313 314 314 315 316 322 316 315 314 311 310 309 309 310 308 308 309 307 308 309 311 320 321 322
328 326 319 315 315 315 315 313 324 320 321 316 317 314 314 314 313 312 310 310 310 309 309 308 309 315 316 312 316 310 316 318
332 329 320 316 321 323 326 325 324 323 315 316 320 316 321 321 323 321 319 316 315 314 310 315 311 309 315 311 312 308 314 316
335 331 322 316 322 325 325 325 325 325 326 315 319 324 324 322 322 321 319 319 317 317 317 310 307 308 307 306 305 306 311 313
336 335 326 316 314 318 315 314 324 322 324 322 312 322 323 321 318 317 317 317 317 317 317 316 312 308 307 307 307 306 306 309
336 331 326 316 314 312 312 312 317 317 321 319 311 311 316 317 317 316 316 316 316 316 315 312 312 310 308 306 305 307 308 308
334 329 326 316 313 312 312 313 311 315 317 311 311 311 313 311 316 316 316 315 314 315 315 313 311 311 308 308 306 307 308 306
331 327 326 316 312 312 313 315 311 312 312 312 312 311 311 311 315 316 315 313 315 315 315 314 313 311 310 309 309 308 308 307
328 328 322 315 312 313 312 312 313 316 312 312 312 312 312 312 312 313 313 313 312 314 314 314 313 311 310 309 309 308 308 307
327 326 319 314 312 312 312 312 312 312 312 312 312 312 312 311 311 311 312 315 314 314 314 313 312 311 310 309 309 309 309 308
322 320 316 313 312 312 313 313 313 313 313 312 312 311 310 310 309 310 309 312 313 311 313 314 314 312 311 310 309 310 310 308
316 315 313 312 311 311 311 311 312 312 312 312 311 310 308 306 306 306 308 309 310 311 312 313 314 313 312 311 310 310 310 309
313 312 311 311 311 312 312 312 311 311 310 309 308 306 304 302 302 302 301 304 307 308 310 311 311 312 312 311 311 310 309 309
312 312 312 311 311 310 310 310 310 309 308 307 305 304 302 301 300 299 300 301 304 306 307 308 309 310 311 312 311 310 310 309
311 312 311 311 310 310 309 309 308 308 307 306 304 303 302 302 301 298 299 300 302 301 302 305 307 308 308 309 310 309 309 307
312 312 311 311 310 308 307 306 306 306 305 303 303 302 302 302 301 298 300 301 302 302 302 302 303 303 303 303 303 302 303 303
312 312 311 310 309 307 305 305 304 304 304 303 302 301 301 301 300 302 302 301 301 301 300 300 299 299 299 299 299 299 299 299
312 311 310 309 308 307 303 300 304 303 302 300 299 299 299 299 301 301 301 301 301 300 301 298 298 298 296 296 296 296 295 295

GFSFLT2_850_thetae_015.txt.gz
Theta_e
327 322 316 316 315 314 315 316 317 319 319 318 318 317 316 316 316 314 311 309 309 309 309 309 309 308 308 310 311 314 316 326
330 329 328 329 327 313 312 310 315 318 318 318 317 317 321 318 317 315 311 309 309 310 310 309 308 309 308 308 309 313 323 323
331 330 329 327 326 319 315 313 313 317 319 319 321 327 326 325 323 315 313 310 311 310 310 310 309 311 314 313 310 320 321 320
330 332 329 327 324 326 328 326 328 328 329 329 328 328 327 322 324 321 320 319 315 319 317 314 317 318 317 317 318 318 316 317
330 336 332 328 327 324 326 326 327 327 329 329 327 327 327 326 325 324 323 322 321 321 320 320 320 319 317 317 316 315 315 315
330 334 329 317 326 325 325 325 326 326 327 327 326 325 325 324 323 321 320 319 319 319 319 319 320 318 315 314 313 310 311 312
330 332 337 330 325 325 326 325 326 325 326 325 324 323 323 322 321 320 318 318 318 318 318 318 318 316 315 313 313 312 312 311
330 332 335 331 324 325 325 326 325 324 322 320 312 318 322 321 320 319 318 317 317 317 317 317 317 315 314 313 312 312 311 311
331 333 335 330 325 324 322 321 318 320 320 320 318 316 319 319 319 319 318 318 317 317 317 317 317 316 315 313 312 312 312 311
328 333 334 329 323 322 321 320 320 320 320 320 320 319 316 314 318 318 317 317 318 317 317 316 316 316 315 314 312 312 311 311
326 332 331 327 323 321 321 321 319 319 319 317 317 317 316 314 313 315 316 317 317 317 316 315 316 316 315 314 313 312 312 311
327 331 328 325 321 320 318 317 317 317 316 316 316 315 315 314 315 314 314 315 314 315 315 316 315 315 315 314 313 312 311 311
327 326 324 319 317 316 316 316 316 315 316 315 315 314 312 311 311 311 311 311 311 311 312 313 313 314 315 315 314 313 312 311
318 317 316 315 315 315 315 314 315 315 315 314 312 311 310 309 309 309 308 308 307 306 307 310 311 312 313 314 315 313 313 313
316 316 316 314 312 314 314 314 314 314 313 313 312 311 309 308 307 307 307 307 307 307 307 308 309 309 310 311 312 313 313 312
316 315 315 314 312 313 313 313 313 313 312 311 310 308 307 306 305 305 305 306 305 306 307 307 308 308 308 308 310 312 312 312
316 315 315 314 314 312 312 312 312 311 310 309 307 306 305 304 304 304 305 304 305 306 306 306 306 307 307 308 308 309 309 308
316 315 314 314 313 312 311 310 310 309 308 307 306 305 304 303 303 303 303 305 305 305 304 303 301 301 302 302 303 302 303 302
315 315 315 313 312 311 311 309 309 308 306 305 303 302 301 301 302 303 303 303 302 302 301 301 299 299 298 299 299 299 298 298
315 314 314 313 313 312 310 309 307 305 304 302 301 300 300 301 302 303 301 301 301 300 300 299 298 297 296 296 296 295 294 293

GFSFLT2_850_thetae_018.txt.gz
Theta_e
318 317 317 319 315 311 312 311 315 317 318 319 316 317 319 316 315 315 312 310 309 310 310 310 309 309 308 308 308 308 312 326
330 329 327 329 327 314 310 310 312 313 316 316 326 328 327 326 323 319 314 313 311 311 312 310 310 309 312 314 312 313 322 319
330 328 328 327 325 325 323 318 329 328 330 325 330 328 327 325 323 324 323 321 318 318 319 317 317 318 318 317 316 319 320 316
330 330 327 324 324 327 328 327 328 327 328 326 329 326 327 325 326 325 323 321 320 322 320 320 320 320 319 317 318 318 317 312
332 329 328 330 325 325 327 327 327 328 330 329 327 325 326 325 324 323 321 320 320 319 320 320 320 319 317 316 316 314 312 314
332 332 322 318 327 326 326 327 327 327 327 326 319 322 322 319 321 318 319 318 318 318 318 318 318 319 318 315 313 312 310 311
330 331 328 331 320 325 324 323 327 325 326 324 313 314 315 316 318 319 318 318 317 317 317 317 317 317 316 315 314 313 312 311
329 333 331 328 324 325 322 325 325 323 322 322 314 314 314 314 314 314 316 318 318 316 316 317 317 317 317 316 314 313 312 311
330 329 336 332 326 324 323 323 319 320 320 320 319 317 314 314 314 314 316 316 315 314 316 317 316 316 317 316 315 314 312 312
328 333 334 333 325 323 322 321 320 319 320 320 320 319 318 315 314 314 315 315 313 313 313 315 317 316 316 316 316 315 313 312
324 331 333 332 326 323 322 321 318 321 320 318 317 317 316 316 314 313 313 313 311 311 314 315 316 316 316 316 315 316 315 313
326 332 332 328 324 322 319 318 317 317 317 316 316 316 315 315 313 311 312 312 311 311 312 312 311 310 312 312 313 313 312 314
330 329 327 322 319 317 317 316 316 316 316 316 316 314 313 312 311 310 309 309 309 309 309 307 306 308 311 313 313 313 316 315
321 319 317 316 316 316 315 315 315 315 314 315 314 313 312 311 310 308 307 306 306 305 307 309 310 310 311 312 313 312 313 313
317 317 316 315 313 315 315 313 314 314 314 314 313 312 311 308 307 306 305 305 305 305 302 303 307 309 309 310 311 311 311 311
316 316 316 315 314 313 314 313 314 313 312 311 311 310 307 306 306 304 304 304 303 302 306 306 306 307 307 307 308 309 308 309
317 316 316 315 314 314 313 312 311 311 310 309 308 306 306 305 302 302 302 301 303 305 306 306 306 306 305 303 302 302 303 304
317 316 316 315 314 313 312 311 310 309 308 307 306 305 301 300 300 300 302 304 304 304 303 302 301 300 300 299 298 298 298 299
316 316 315 314 314 313 312 311 310 308 306 305 303 300 300 299 301 302 303 303 301 300 300 300 300 299 298 296 296 296 297 296
315 315 314 312 312 311 311 309 307 306 305 303 300 299 299 299 300 298 299 300 300 299 299 298 297 296 295 295 295 294 294 293

GFSFLT2_850_thetae_021.txt.gz
Theta_e
318 317 320 318 312 309 308 310 312 312 313 315 324 325 324 323 319 318 316 315 313 312 313 314 312 310 310 311 311 308 315 324
329 326 326 325 320 310 310 313 317 323 323 328 327 325 324 322 325 323 323 319 319 320 319 317 316 316 318 317 315 317 320 318
329 328 324 326 325 327 323 323 322 323 323 328 327 326 325 324 325 323 322 319 320 320 318 319 319 318 317 316 316 318 318 318
329 328 321 324 325 327 327 327 327 328 326 324 326 326 326 325 324 322 319 319 319 317 317 317 318 318 318 315 313 314 314 316
330 325 327 327 325 327 327 327 326 327 329 327 319 324 324 322 318 316 316 317 317 317 317 317 317 317 318 317 315 313 310 311
331 329 316 325 327 326 326 327 326 328 327 322 314 316 316 314 314 313 314 316 316 316 316 314 314 315 316 316 315 314 312 310
328 328 317 316 318 323 323 326 326 326 323 319 314 314 314 313 313 314 314 314 315 315 315 313 315 316 316 317 316 315 314 313
329 332 330 324 321 318 315 321 325 322 321 319 318 315 315 314 314 314 314 315 316 316 315 313 314 316 316 316 317 316 316 315
331 330 325 324 327 320 321 326 322 321 320 319 319 319 318 317 316 314 314 314 314 313 312 311 312 311 315 316 316 316 316 316
331 329 329 329 326 324 321 321 321 318 320 320 320 320 319 318 316 315 313 313 312 311 311 311 313 315 316 315 316 316 315 316
330 331 330 329 325 323 321 321 320 319 320 317 317 318 317 316 315 314 312 311 310 311 311 311 312 313 313 312 307 306 307 311
330 330 329 325 324 322 320 320 318 317 317 316 316 316 316 314 313 312 312 309 308 308 307 308 308 306 305 305 305 306 307 311
326 329 328 325 319 318 317 317 316 316 315 314 315 314 314 313 312 310 308 308 306 305 305 304 303 303 306 307 306 308 309 311
327 325 320 317 316 316 315 315 314 315 315 314 313 312 312 311 310 309 307 306 305 304 304 304 302 303 307 308 309 308 307 309
317 316 315 315 314 315 315 314 314 314 314 314 313 312 310 310 309 306 305 303 302 302 301 301 305 306 306 307 307 307 305 306
316 316 316 315 315 314 314 313 312 311 311 310 310 309 309 308 306 304 300 298 298 300 304 305 305 305 304 304 304 300 299 300
316 316 316 315 314 314 313 312 311 310 310 309 309 308 306 304 299 298 299 301 303 304 304 302 301 300 299 299 299 299 298 297
316 316 316 314 313 313 313 312 311 311 310 309 307 305 300 298 299 300 300 300 300 300 300 299 298 299 299 299 297 296 295 295
316 316 316 314 313 312 311 311 310 309 308 305 303 299 298 298 297 297 298 298 297 296 298 297 298 296 295 295 295 295 294 294
315 314 314 313 311 310 309 308 307 305 303 302 300 299 299 299 297 296 297 297 297 297 297 296 295 294 294 295 295 295 294 294

GFSFLT2_850_thetae_024.txt.gz
Theta_e
317 318 317 311 308 307 309 310 311 311 313 317 319 317 317 319 319 319 318 316 316 317 315 314 315 314 315 315 315 316 321 321
324 321 319 316 311 309 310 313 315 317 319 323 322 321 320 319 319 319 318 318 316 315 313 313 314 315 315 314 314 318 320 319
328 321 322 325 326 325 324 323 323 320 320 323 320 318 320 318 317 317 316 316 316 314 313 314 313 314 314 313 313 313 316 317
329 319 323 324 326 327 327 326 325 325 325 321 316 320 321 321 318 314 313 313 314 314 314 314 313 313 313 313 314 313 312 311
330 322 323 324 325 327 327 327 326 326 326 325 317 317 317 314 313 312 313 314 314 314 314 315 314 314 314 314 314 314 313 312
330 320 318 324 326 326 326 326 326 327 327 323 315 315 316 314 313 313 314 314 314 315 315 315 315 312 313 315 315 316 316 314
330 319 326 323 324 325 326 326 325 325 326 321 317 314 314 314 315 315 315 316 316 317 317 317 315 312 314 315 315 315 316 316
330 326 318 324 321 322 320 324 327 326 323 320 319 318 317 316 316 315 315 314 314 314 315 314 312 311 311 312 315 316 316 316
330 329 324 323 327 324 320 322 324 322 321 320 320 320 319 318 317 317 315 313 312 312 311 311 311 310 310 312 314 315 314 315
331 330 328 326 325 326 323 321 321 320 320 320 320 320 319 319 317 316 314 313 313 312 311 310 309 308 308 309 309 310 311 308
330 331 328 327 326 324 321 321 321 320 320 317 319 319 318 317 316 314 313 313 312 311 309 307 305 304 303 303 302 302 302 304
331 328 326 325 324 322 322 321 319 317 316 315 315 315 314 313 312 311 311 311 310 307 306 305 302 302 302 302 301 301 301 302
328 327 324 323 321 320 318 316 315 314 315 314 313 313 313 312 312 311 309 308 306 305 305 302 301 300 300 301 302 302 305 305
318 318 318 316 316 315 315 315 314 314 314 314 313 312 312 311 309 309 307 306 305 304 300 298 299 302 305 304 305 303 304 304
315 315 315 315 314 314 314 314 313 313 313 313 311 310 310 309 307 306 304 301 298 298 300 302 303 302 302 301 301 301 299 299
315 315 315 315 315 315 314 313 313 312 312 311 310 309 308 306 303 297 296 295 298 300 302 300 300 300 298 298 298 298 298 298
316 315 315 314 315 314 313 313 312 312 311 310 309 308 305 299 297 296 296 295 295 297 297 295 298 298 298 297 296 296 296 295
316 316 315 315 315 314 313 312 311 311 310 308 307 305 299 297 298 298 297 294 296 296 296 297 297 296 295 295 294 295 295 294
316 315 315 314 313 312 311 310 309 307 305 304 303 299 298 298 299 297 294 294 295 295 294 293 293 293 293 294 294 295 294 294
314 314 313 313 312 311 309 308 307 305 303 302 299 298 299 299 299 294 293 293 294 293 293 292 292 292 291 292 292 292 294 293

GFSFLT2_850_thetae_027.txt.gz
Theta_e
315 314 311 309 308 308 309 309 310 311 314 317 317 317 316 314 314 313 312 312 312 311 311 311 311 312 312 313 313 316 320 320
319 316 313 308 308 309 310 312 314 316 319 319 319 319 317 316 313 313 313 313 312 312 312 312 312 311 310 311 311 312 313 317
318 319 321 319 321 319 319 320 318 317 319 320 318 317 316 314 313 313 313 313 313 314 314 314 313 313 312 312 311 311 312 311
324 316 321 326 326 326 325 322 322 322 322 317 316 316 317 315 313 313 314 315 316 316 316 316 316 315 313 314 313 312 311 312
326 321 323 325 325 325 324 324 321 321 321 320 314 316 316 314 314 314 315 316 316 316 316 316 316 316 313 313 316 316 315 314
327 321 324 323 324 325 323 323 325 324 322 322 317 314 315 314 315 315 316 316 316 316 315 314 315 314 312 311 313 315 315 316
329 324 323 323 324 324 325 324 325 325 325 325 320 315 315 315 315 316 314 314 314 313 313 312 312 312 311 311 310 312 314 316
329 323 323 324 323 323 324 325 325 325 325 324 321 320 319 319 318 317 316 315 314 313 312 312 312 311 310 309 309 309 312 315
330 323 323 323 323 324 323 322 325 324 323 322 321 320 320 319 319 318 316 315 314 313 312 312 312 310 307 306 305 305 306 306
329 322 325 325 327 326 323 324 324 322 322 321 320 320 320 319 317 316 314 313 313 312 312 312 311 308 306 304 304 303 302 301
329 322 328 326 325 325 323 323 320 319 319 319 319 319 319 318 316 313 312 312 312 311 310 308 306 305 304 302 302 303 302 301
329 329 327 326 325 324 321 321 320 318 317 317 317 316 315 313 312 312 311 310 310 309 307 306 305 303 299 298 299 299 299 303
329 327 327 324 323 322 321 320 316 315 314 314 314 313 312 311 310 309 309 308 307 305 303 301 298 298 298 299 298 302 301 300
324 323 323 320 318 317 315 314 314 313 313 313 312 311 311 311 310 309 306 304 300 296 295 295 297 299 300 299 299 298 299 298
316 316 315 315 314 314 314 314 314 313 311 311 311 311 310 310 307 301 297 296 295 293 294 296 297 296 298 298 298 298 296 297
315 315 314 314 313 313 312 312 312 312 312 311 311 310 309 306 301 296 296 295 294 293 294 295 296 295 296 296 296 295 296 295
316 315 315 315 315 314 314 313 312 311 311 310 308 306 303 298 296 296 295 293 292 292 293 294 294 295 294 294 294 294 294 294
316 315 315 315 314 314 313 312 311 310 308 306 301 300 298 297 296 295 295 293 292 292 293 293 293 292 292 292 292 294 293 293
315 315 314 313 313 312 311 310 308 306 304 301 302 301 300 298 297 298 297 293 292 292 292 292 291 291 291 290 290 291 292 292
314 313 312 311 310 309 308 307 305 302 301 301 301 300 300 299 298 298 297 293 292 292 292 291 290 290 290 290 290 290 291 291

GFSFLT2_850_thetae_030.txt.gz
Theta_e
315 314 311 310 308 308 309 310 310 313 317 316 316 315 314 312 312 312 311 311 311 311 311 312 312 312 312 311 311 311 311 315
314 312 309 307 308 309 310 311 314 318 318 317 316 315 314 313 312 312 312 312 313 313 313 313 313 312 312 312 312 312 311 311
316 313 309 308 309 311 314 316 316 318 317 316 317 316 315 314 313 313 313 314 315 315 315 315 315 314 313 312 312 312 312 311
318 320 318 320 319 319 319 319 317 319 318 316 317 317 316 315 314 314 314 315 316 316 315 315 315 314 313 312 312 312 312 312
318 321 323 324 324 323 322 320 321 322 322 318 315 317 317 315 315 314 315 315 315 315 315 314 313 313 312 311 311 311 311 312
319 322 323 325 325 324 324 323 323 324 323 322 318 314 316 315 315 315 315 315 315 315 314 313 312 312 312 312 311 310 309 311
324 322 323 324 326 326 326 325 326 326 325 325 321 318 317 316 317 316 316 316 315 314 313 312 312 312 312 312 310 308 307 308
327 323 325 325 326 326 326 326 326 326 326 325 323 320 318 318 319 319 318 317 316 314 313 312 312 311 310 309 308 306 304 303
328 324 327 326 326 325 325 324 325 326 325 325 323 321 319 319 319 319 317 315 314 312 311 311 311 310 309 308 306 305 304 303
328 326 327 324 325 325 324 324 324 324 324 325 322 321 320 320 318 315 313 312 311 311 310 309 309 308 307 306 305 303 300 300
329 327 326 326 323 325 323 324 324 321 320 321 319 319 318 317 314 313 312 311 310 309 308 306 305 304 301 299 299 298 298 298
328 327 325 325 325 323 322 320 319 318 318 317 316 315 314 313 312 311 310 310 309 305 301 299 297 295 295 295 295 295 296 300
328 327 324 323 322 320 320 320 318 314 314 313 312 311 310 310 310 310 309 306 300 297 296 295 294 294 294 294 293 296 298 295
325 324 320 318 319 318 316 314 314 314 313 311 311 311 311 311 309 305 301 297 296 295 294 293 293 293 294 294 295 295 296 295
317 316 316 314 313 313 312 312 312 312 312 311 311 310 307 303 300 297 296 295 294 293 292 292 291 292 293 294 295 295 295 295
315 314 314 314 314 314 313 313 313 312 312 311 309 303 300 299 300 299 296 296 294 293 292 292 292 292 292 292 293 293 294 293
315 315 315 315 315 314 314 313 312 311 310 308 303 301 300 299 299 298 297 297 296 295 293 291 291 291 291 291 291 291 292 292
316 315 315 314 313 313 312 311 309 308 305 301 300 301 300 298 298 298 298 298 297 295 292 291 291 291 290 290 290 290 291 292
315 315 313 312 311 311 309 308 306 303 302 301 300 300 299 299 298 298 298 298 295 292 292 291 291 290 289 289 289 289 289 290
314 312 311 310 309 308 306 303 302 301 301 301 300 300 299 299 298 299 298 296 293 294 292 291 290 289 289 289 289 289 289 289

GFSFLT2_850_thetae_036.txt.gz
Theta_e
334 327 321 318 315 312 313 313 312 316 316 315 314 313 313 312 311 311 311 312 312 313 313 313 313 313 313 313 313 313 318 318
331 331 327 315 311 312 313 312 318 317 317 316 315 313 312 312 312 312 312 313 314 314 314 313 313 313 313 313 314 316 317 317
330 329 327 325 322 313 313 317 319 319 318 317 317 323 317 317 313 313 313 314 314 314 314 313 313 314 313 314 315 315 315 315
316 313 312 311 320 314 314 320 324 326 324 320 325 319 322 321 314 314 314 315 315 314 314 314 314 315 314 314 314 313 313 312
321 310 309 312 317 321 325 326 323 322 320 322 322 321 319 323 316 316 315 315 316 316 315 315 315 314 313 313 313 312 311 311
315 309 311 313 322 325 322 326 325 327 324 322 321 323 320 318 317 316 316 316 316 316 315 315 314 313 313 313 311 311 311 310
320 317 318 319 323 325 325 325 327 327 327 325 324 321 320 319 318 318 318 317 316 316 314 313 312 311 311 310 309 309 309 309
323 322 321 323 324 325 326 326 326 327 326 323 323 323 321 320 319 319 318 317 316 313 312 311 310 309 308 307 306 306 306 305
325 323 324 324 324 325 325 324 324 323 323 323 323 323 322 320 319 318 315 312 311 310 309 307 307 306 304 304 305 303 303 305
326 324 325 326 326 324 322 317 319 320 323 323 322 321 320 318 314 312 311 310 308 305 304 303 303 303 302 301 302 301 300 304
326 326 325 325 323 321 321 320 320 321 321 319 317 316 314 312 311 310 309 306 303 301 301 301 302 302 300 300 300 300 300 302
325 326 325 324 321 316 319 320 320 318 318 316 314 313 311 310 310 308 304 302 301 299 299 300 300 301 299 299 300 300 301 301
324 325 326 324 318 321 322 320 318 317 314 313 312 310 310 309 305 303 301 301 297 297 299 299 299 300 299 298 298 300 301 300
323 324 320 320 320 319 317 316 314 313 313 312 310 310 309 305 302 301 300 300 301 300 300 299 299 299 299 297 298 298 298 299
322 322 319 315 315 314 313 313 312 312 311 310 310 308 303 302 300 299 299 301 300 300 300 299 298 298 298 297 297 297 296 296
323 320 318 314 313 314 313 314 314 313 311 310 307 304 302 300 298 299 300 301 301 300 299 299 298 297 297 296 296 296 295 295
320 318 317 314 313 315 315 314 313 311 310 307 306 304 300 300 301 301 301 301 301 300 299 299 298 297 297 295 295 294 294 294
316 315 315 314 314 314 313 312 311 309 307 305 304 303 303 302 302 302 301 301 301 300 299 298 297 297 296 295 294 294 293 293
316 316 315 314 313 311 311 309 307 306 305 303 303 302 302 302 302 301 300 299 299 298 298 297 297 296 295 295 294 293 293 292
316 316 314 312 310 309 308 305 305 304 303 303 303 302 301 299 298 297 297 296 297 297 297 297 296 295 295 294 293 292 292 291

GFSFLT2_850_thetae_039.txt.gz
Theta_e
334 331 327 321 318 316 314 314 311 313 316 316 313 313 313 312 312 312 312 312 313 313 313 313 313 313 313 314 315 317 318 318
334 328 320 317 316 314 314 312 316 317 317 316 314 313 313 313 312 312 313 314 314 314 314 313 313 314 314 314 315 317 317 317
331 330 330 329 325 314 313 316 318 319 318 318 322 324 323 320 314 313 314 314 315 315 314 314 315 317 316 315 316 316 315 315
331 330 328 326 324 314 315 320 322 327 326 322 328 327 326 326 314 314 314 314 315 316 316 316 317 317 317 316 316 315 315 314
329 329 324 323 324 324 325 327 328 328 329 329 328 327 327 325 325 322 322 319 321 319 319 318 317 317 316 316 315 314 314 314
326 325 324 324 324 326 327 328 328 329 329 326 328 327 327 326 323 323 321 320 319 319 318 317 316 316 315 314 313 313 312 312
324 323 323 323 327 329 328 329 329 326 327 326 326 326 325 324 322 321 320 318 317 317 316 315 314 314 313 312 311 310 310 309
325 325 326 327 330 329 328 327 328 328 327 327 323 322 323 324 321 319 317 316 316 314 313 311 310 310 309 308 306 307 307 306
329 329 329 329 328 327 326 324 320 323 322 322 323 322 323 321 319 318 317 313 311 310 308 308 307 306 306 305 304 303 305 303
330 329 326 325 324 325 324 319 320 320 320 322 322 322 321 318 317 314 311 310 308 307 305 305 305 304 305 303 302 302 303 302
327 323 324 325 325 325 322 321 319 319 321 320 319 317 315 313 311 310 308 307 306 305 303 303 302 302 302 302 301 302 302 302
329 326 324 323 324 323 320 318 317 320 319 317 315 313 311 311 309 308 307 306 305 304 303 302 302 302 302 302 301 300 301 304
329 328 326 325 324 321 316 319 321 318 316 314 313 312 310 309 307 306 305 304 303 303 303 302 302 301 301 301 300 300 301 301
327 326 325 325 320 321 322 319 317 315 313 313 313 310 308 306 307 306 305 303 303 303 303 302 302 300 300 300 300 299 300 300
331 326 326 325 324 320 318 317 315 314 313 313 311 309 307 306 305 304 303 303 303 303 302 302 301 300 299 299 299 299 298 298
328 326 324 322 319 318 317 316 316 315 314 313 311 309 307 306 304 304 304 303 303 302 302 301 301 300 299 298 298 298 297 296
326 325 322 319 318 317 317 317 317 315 314 313 310 308 306 305 305 304 304 303 302 302 302 301 300 300 299 298 297 297 296 296
323 321 319 318 317 318 317 316 314 313 312 309 307 305 304 304 304 304 303 301 301 300 300 299 300 299 299 297 297 296 295 295
320 319 318 317 318 317 315 314 311 309 308 307 305 304 304 303 303 301 299 298 298 298 298 298 299 299 298 297 296 296 295 294
319 318 318 318 316 314 312 309 308 307 306 305 303 303 301 300 298 298 297 297 297 297 297 297 298 298 297 296 295 295 294 294

GFSFLT2_850_thetae_042.txt.gz
Theta_e
331 332 330 322 318 316 314 313 310 312 314 314 313 312 311 311 311 311 312 313 313 313 313 313 313 315 315 315 316 317 316 316
332 329 323 319 316 313 313 311 313 316 315 313 313 313 313 312 312 312 313 313 314 314 314 314 316 317 317 316 316 316 315 315
327 321 318 316 313 314 313 314 316 316 316 320 325 325 325 322 313 313 313 314 315 315 315 316 318 318 317 317 316 316 315 315
331 329 329 325 313 314 314 317 319 319 318 328 327 327 326 327 322 314 315 317 319 320 319 318 319 318 317 317 316 315 314 314
330 329 326 325 320 314 319 325 328 328 326 328 328 326 325 326 324 323 323 322 322 320 319 319 317 316 315 315 314 313 312 312
329 327 325 324 323 326 326 328 327 327 326 326 325 325 326 324 324 323 322 321 320 319 318 317 317 315 313 313 311 311 308 309
326 322 325 323 327 326 329 328 328 326 325 323 325 326 324 323 322 322 321 320 318 317 317 316 313 311 309 309 308 307 305 307
323 320 321 327 328 328 327 327 326 325 327 327 326 324 322 324 323 321 319 318 317 314 312 310 308 307 307 307 306 304 303 304
325 325 328 329 328 326 326 326 325 321 324 322 322 323 323 323 322 321 319 316 311 310 309 306 305 304 303 304 304 302 301 302
328 329 329 328 327 326 326 325 320 319 319 319 321 322 322 321 320 318 313 310 309 307 305 304 301 301 301 302 302 302 301 302
330 330 328 326 325 324 324 323 319 319 318 319 319 319 318 316 314 312 310 308 306 305 303 300 300 301 302 301 302 301 301 300
329 327 325 324 323 323 324 323 322 320 319 320 317 315 313 312 310 309 308 306 305 303 302 303 303 302 301 301 300 301 300 301
329 328 324 324 323 324 323 321 317 319 320 316 314 313 312 310 308 308 306 306 304 303 303 303 302 302 301 300 300 300 300 300
330 328 327 325 324 324 319 321 320 318 316 314 313 312 310 308 308 307 306 303 301 303 303 302 302 302 301 300 300 299 300 299
329 328 326 325 324 323 321 317 316 315 314 313 313 311 309 308 306 305 304 303 304 303 303 302 302 301 299 301 300 299 298 298
328 327 324 326 324 320 318 317 316 315 315 314 313 312 310 308 306 305 304 304 303 302 302 301 301 301 300 300 299 299 298 297
329 327 326 324 318 318 317 317 316 316 315 314 313 310 309 306 305 305 304 304 303 302 301 301 301 300 300 300 299 298 297 297
328 325 325 321 319 318 317 318 316 315 314 313 310 308 306 304 304 304 304 304 300 299 298 298 297 298 299 298 299 297 297 296
327 324 321 320 318 318 318 317 315 313 311 310 309 306 305 304 303 303 300 298 298 297 297 297 297 297 298 298 298 297 296 295
323 322 320 319 318 318 317 314 312 309 309 308 306 304 303 302 300 298 297 297 296 296 296 296 296 298 298 297 297 296 295 294

GFSFLT2_850_thetae_045.txt.gz
Theta_e
328 325 325 325 318 314 313 311 310 311 313 312 311 310 311 311 311 312 313 313 313 313 313 314 317 317 317 316 316 316 315 315
324 326 327 321 316 313 312 310 313 314 312 312 311 311 311 313 312 312 313 314 314 314 315 316 318 317 317 317 317 316 315 315
327 327 321 316 313 312 311 314 315 314 314 318 319 321 322 318 314 313 313 314 316 319 319 318 318 318 317 317 317 315 313 314
327 321 318 314 312 312 314 317 315 317 326 326 323 324 324 322 323 320 320 321 321 320 319 319 319 318 317 316 315 313 311 309
327 327 321 312 312 314 318 318 320 322 327 328 326 325 323 325 324 323 322 321 321 320 319 318 318 317 314 313 312 310 309 307
330 327 325 319 312 319 323 326 324 324 321 328 327 325 324 325 324 323 321 320 320 320 319 318 317 313 310 309 308 308 307 304
327 325 323 323 325 326 328 326 325 325 323 323 325 323 326 325 323 323 322 321 320 318 318 315 311 309 307 307 307 306 305 302
327 325 322 325 327 327 327 327 326 326 324 324 323 325 324 322 322 322 321 320 319 315 312 310 307 304 302 300 302 302 302 301
319 324 323 328 326 326 327 327 325 322 325 325 324 324 323 322 322 322 320 319 315 311 310 306 302 299 299 300 302 302 302 300
316 323 325 327 327 325 326 326 324 323 320 321 319 321 321 322 322 320 316 312 311 309 306 302 300 300 299 300 300 300 299 299
323 321 323 326 325 325 325 324 321 318 318 318 319 320 320 318 316 313 311 310 309 306 303 300 301 301 301 301 300 299 300 300
323 326 327 328 326 325 325 324 322 320 319 319 319 318 314 313 311 310 310 308 307 304 301 302 302 301 302 301 300 298 299 300
328 326 327 327 324 322 323 324 323 321 321 319 319 313 312 311 310 309 308 307 306 301 302 302 301 301 301 301 300 299 299 298
330 328 325 323 322 323 323 322 319 319 319 318 314 312 311 310 309 308 308 307 304 301 301 300 300 302 302 301 300 299 299 299
329 328 326 325 324 324 320 320 319 318 316 313 312 312 311 310 309 308 307 304 303 303 302 300 302 301 300 301 300 300 299 299
330 329 327 324 324 322 321 320 315 313 314 314 313 313 312 310 308 306 305 304 304 303 303 302 301 301 300 300 300 300 300 299
330 327 326 325 323 323 318 315 316 316 315 314 314 312 311 308 306 305 305 304 304 304 303 298 297 297 296 297 299 299 298 299
329 326 324 324 324 319 318 317 317 316 315 314 313 311 309 308 306 305 304 304 304 302 294 294 296 296 296 297 298 299 298 297
328 327 326 324 319 319 317 317 316 315 314 313 310 308 306 305 304 304 304 303 296 293 294 294 295 295 296 297 297 297 297 297
325 327 325 324 319 318 317 318 316 314 313 311 310 309 307 307 304 303 299 295 294 293 293 295 296 297 297 297 296 296 295 295

GFSFLT2_850_thetae_048.txt.gz
Theta_e
331 329 326 321 317 313 311 309 310 312 312 311 310 311 311 312 313 313 313 313 313 314 314 316 317 317 317 317 317 316 314 314
326 321 317 319 315 312 310 310 313 313 312 311 311 311 312 312 313 313 313 313 314 316 317 318 318 318 318 317 317 315 313 312
322 320 318 318 313 312 310 313 313 312 312 311 311 312 313 312 312 313 314 315 318 319 319 319 318 318 318 317 315 313 310 309
321 322 323 316 313 311 313 314 313 313 315 314 315 319 318 323 321 321 321 321 320 319 319 319 318 318 317 314 311 310 308 307
326 322 321 315 312 312 316 316 321 319 323 324 321 323 323 324 323 322 321 321 320 320 319 319 318 316 313 310 309 308 307 306
323 323 317 314 312 315 316 316 324 323 326 326 324 326 325 326 324 322 321 321 320 319 319 318 316 311 309 307 305 305 305 304
325 322 314 313 314 319 321 323 319 319 327 327 327 325 324 324 323 322 321 320 319 319 318 314 311 308 303 301 300 302 302 302
329 325 319 313 320 323 324 323 321 321 321 325 326 324 326 324 323 322 322 321 320 318 312 309 306 302 299 299 300 301 301 301
327 323 321 323 325 326 326 324 326 327 325 323 323 324 325 324 322 322 322 321 319 312 309 306 302 300 299 299 299 299 299 298
325 323 321 324 325 326 326 327 327 326 325 326 324 322 321 322 323 322 321 317 311 309 307 303 300 300 299 299 300 299 297 299
326 324 322 326 327 328 327 327 326 325 324 320 319 319 321 321 321 318 313 310 309 308 305 301 300 300 299 300 300 300 298 299
313 318 323 327 328 327 326 326 325 322 318 318 319 319 319 317 314 311 310 309 309 307 303 300 300 298 299 301 300 298 299 297
314 316 322 325 326 325 324 324 324 321 321 319 319 318 314 312 311 310 309 308 307 304 301 301 299 297 297 297 296 299 298 298
324 321 321 323 324 323 324 324 323 323 321 319 317 314 312 311 311 309 309 308 305 303 303 301 299 299 297 297 299 298 298 299
328 328 326 325 326 325 323 323 321 319 318 317 315 313 311 311 311 310 308 306 305 304 302 302 302 301 299 299 299 299 298 298
329 329 328 326 325 323 323 324 319 318 319 317 313 312 312 312 312 309 307 306 305 304 304 303 303 298 295 295 295 296 298 299
329 329 328 326 324 324 323 321 320 317 313 313 314 314 312 310 309 306 306 305 305 304 304 303 300 293 294 294 295 296 298 298
329 329 329 326 324 322 321 319 316 315 315 314 314 313 311 310 309 308 306 305 304 303 301 295 292 292 292 293 295 296 297 297
330 329 327 325 325 323 319 317 316 317 316 315 314 313 310 309 307 305 304 303 302 298 294 292 292 293 294 294 296 297 296 296
331 329 325 322 323 323 319 318 317 317 316 315 314 312 309 306 307 306 304 301 297 294 292 292 293 295 296 296 296 295 294 294

GFSFLT2_850_thetae_051.txt.gz
Theta_e
330 331 327 319 314 312 310 308 310 312 310 310 310 311 312 313 313 313 313 313 314 315 317 317 318 318 317 317 316 315 312 311
329 323 318 316 314 312 309 310 312 312 310 310 311 312 312 313 313 313 313 313 315 317 318 318 318 318 318 317 314 312 310 308
323 320 319 315 313 311 309 312 313 311 310 311 311 311 312 313 313 313 313 314 317 318 319 319 319 318 318 315 312 309 307 306
320 317 316 312 310 310 311 313 312 311 311 312 316 317 314 313 314 314 316 318 318 319 319 319 318 318 316 312 309 307 306 305
323 322 317 313 313 312 314 313 314 314 319 323 323 322 323 322 321 321 320 320 319 320 319 319 318 316 311 309 306 304 303 303
318 317 319 318 313 312 315 313 320 324 323 323 323 322 324 324 323 321 321 321 320 320 319 318 316 309 306 303 301 300 300 300
323 321 321 316 312 316 316 323 325 325 326 324 323 324 323 324 323 322 321 321 320 319 318 315 309 305 301 300 299 299 299 299
322 322 318 313 313 317 317 322 323 324 326 326 325 324 324 324 323 322 321 320 319 318 316 310 307 302 300 299 298 299 299 298
321 321 315 313 316 318 321 320 321 321 321 325 323 324 325 324 323 322 321 319 318 315 310 308 302 300 299 298 298 299 298 296
325 324 318 313 319 324 324 324 324 325 326 324 323 325 325 324 323 322 321 319 314 310 309 306 301 299 298 297 298 298 297 298
329 324 318 315 322 326 326 325 325 326 326 325 325 323 322 322 322 322 320 313 310 309 308 302 300 298 297 298 298 297 298 298
329 324 322 323 325 325 325 326 327 327 325 324 319 319 320 321 322 318 311 310 309 308 305 302 300 298 298 298 296 297 299 297
327 326 323 322 324 325 327 328 327 325 322 318 318 319 319 318 314 311 310 309 309 307 304 302 301 300 299 298 297 298 298 298
325 325 324 321 324 326 327 327 326 323 319 319 319 318 317 314 311 310 310 310 307 306 304 303 302 301 301 299 296 295 297 298
323 318 316 317 323 327 327 326 324 321 321 321 320 318 316 312 311 311 310 308 307 305 304 304 303 303 301 296 295 295 295 295
324 320 317 319 322 326 326 325 324 323 323 321 318 317 313 311 311 310 308 307 306 305 304 304 303 301 296 293 293 294 296 297
325 322 323 323 325 326 326 326 323 323 320 318 317 314 312 311 310 309 309 308 306 305 304 303 300 294 292 292 292 293 294 296
325 325 326 326 327 327 325 324 323 322 319 317 314 312 312 311 309 307 307 306 306 304 302 299 294 292 292 293 293 294 295 296
326 326 327 327 328 326 324 323 322 320 317 314 313 313 312 311 309 307 307 304 305 300 299 294 292 292 293 293 293 294 295 294
327 327 328 327 327 326 324 321 318 316 315 315 315 314 313 311 307 308 305 305 300 302 299 292 292 293 293 291 291 292 292 292

GFSFLT2_850_thetae_054.txt.gz
Theta_e
333 331 329 320 313 310 308 309 311 311 310 310 311 312 312 313 313 313 313 314 315 316 317 317 318 318 317 316 313 311 309 307
329 323 316 315 311 309 309 311 311 310 310 311 312 313 313 313 313 313 313 314 316 318 318 318 318 318 317 315 311 309 306 305
324 324 317 313 311 310 310 311 312 310 310 311 312 313 313 313 313 313 314 316 317 318 319 319 318 318 316 312 309 306 304 303
326 319 318 317 316 310 309 312 311 310 311 311 312 313 313 313 313 313 315 317 318 319 319 319 319 317 313 309 306 304 302 301
321 319 318 316 311 309 310 313 311 311 312 313 312 313 313 314 316 319 319 319 319 319 319 319 318 314 309 306 303 301 300 300
319 318 320 314 310 310 312 313 311 312 315 320 320 321 321 321 322 321 321 320 320 320 319 318 316 310 306 302 300 299 299 299
320 316 312 311 311 310 313 313 316 320 324 324 324 322 323 323 323 321 321 321 320 319 318 316 311 306 302 300 299 299 298 298
322 316 315 314 313 312 314 313 322 323 324 324 324 323 323 324 323 322 321 320 319 319 316 311 308 303 300 299 298 298 297 297
318 318 321 316 313 314 315 320 323 325 326 326 325 324 324 324 323 322 321 320 319 317 312 309 306 302 299 297 297 297 296 297
325 320 320 315 313 315 316 322 324 323 323 325 324 324 323 324 324 322 321 319 318 314 309 308 304 300 297 297 296 295 297 297
321 322 319 314 313 317 317 318 322 324 324 325 325 324 324 324 323 322 321 319 315 309 309 306 302 299 298 298 297 297 298 297
323 324 322 316 314 319 322 325 325 325 326 326 325 325 323 321 321 321 320 315 309 309 307 303 301 300 300 300 297 296 297 297
324 327 325 319 314 321 325 325 326 326 325 325 324 321 319 320 321 321 316 309 309 308 305 303 303 302 301 300 297 295 296 296
327 328 327 322 318 320 324 324 325 326 326 325 320 318 319 320 319 314 310 309 309 308 305 304 304 303 302 299 295 295 296 295
325 326 324 324 323 321 323 325 325 325 325 323 319 318 318 317 313 310 309 309 308 306 305 305 304 303 301 296 294 293 293 294
327 326 325 324 324 321 321 324 324 324 325 323 320 319 317 313 310 309 309 308 306 305 304 303 303 301 298 293 292 292 293 294
326 327 325 323 323 322 322 323 325 325 323 322 321 318 314 312 310 309 308 306 305 304 303 301 299 296 293 292 292 292 292 294
327 326 325 323 321 319 321 324 325 324 322 321 320 316 313 311 310 309 308 306 306 306 307 301 302 300 292 292 292 292 292 293
327 326 325 324 321 319 322 324 325 323 322 321 318 316 314 312 311 310 307 306 308 307 303 303 299 295 292 292 291 290 291 291
326 326 325 325 323 322 324 326 326 323 322 319 318 316 313 312 310 307 305 306 306 306 301 298 294 291 292 292 291 290 290 290

GFSFLT2_850_thetae_057.txt.gz
Theta_e
330 325 325 320 314 310 308 310 311 309 310 311 313 313 313 313 313 314 314 315 316 317 317 318 317 317 316 312 310 307 305 304
325 324 323 321 314 313 310 311 310 309 311 311 312 313 313 313 313 313 314 316 317 318 318 318 318 316 314 310 308 305 304 302
327 325 323 323 312 310 313 312 310 310 311 312 312 312 313 313 313 314 315 317 318 318 319 319 318 316 311 308 306 304 302 301
325 324 323 315 312 314 315 311 310 310 312 312 313 313 313 313 313 314 316 318 318 319 319 319 318 314 309 306 304 301 300 300
323 321 316 315 316 315 312 311 310 310 311 312 313 313 313 313 314 316 318 319 319 319 319 319 318 312 308 305 302 300 300 299
317 316 316 316 312 310 311 312 310 310 311 312 312 313 313 314 318 319 320 320 320 319 319 319 316 309 305 303 301 300 299 298
317 318 316 313 311 309 311 312 310 311 312 313 314 316 319 320 321 321 321 320 320 320 320 318 312 307 304 302 300 299 298 297
319 316 314 310 310 309 310 312 311 312 315 320 322 321 322 323 322 322 321 320 320 319 318 315 308 306 303 300 299 298 297 297
317 316 311 310 310 311 314 313 313 318 322 323 324 323 323 323 323 323 322 321 319 319 318 310 308 303 300 298 298 297 297 297
317 314 316 318 312 311 313 313 319 323 324 325 324 324 324 323 323 323 322 320 319 317 312 308 305 301 299 298 298 297 297 297
320 318 318 320 314 312 315 314 318 324 325 323 323 323 323 323 323 323 321 319 318 315 309 308 305 302 300 300 298 297 297 297
324 323 320 319 314 313 316 317 322 324 323 323 323 324 324 324 323 322 320 320 318 310 309 307 304 303 303 302 299 296 296 297
324 321 321 320 315 313 315 318 317 320 324 323 324 325 325 323 321 321 320 319 312 309 308 306 305 304 303 302 299 296 296 297
323 323 323 324 319 313 314 317 320 323 325 325 324 324 323 320 320 320 320 316 309 308 307 306 304 304 303 300 299 298 296 295
322 324 324 326 324 317 313 319 323 325 325 324 324 323 320 319 319 319 316 309 308 308 307 305 304 303 301 298 297 297 293 294
323 325 326 326 327 323 318 318 321 322 322 323 323 321 318 318 318 315 310 308 309 307 306 305 305 302 299 297 294 293 296 296
325 325 326 327 326 326 323 322 323 322 323 324 322 318 318 318 316 311 309 308 309 306 305 304 303 305 303 299 293 292 292 294
326 326 326 326 326 325 324 323 323 322 323 324 322 319 318 317 314 311 309 308 308 306 306 305 303 304 301 296 292 292 295 295
327 326 326 326 327 326 324 322 322 324 325 325 322 321 318 317 313 312 310 308 306 305 305 304 301 300 294 292 291 291 291 291
329 326 326 326 326 326 324 322 323 322 324 325 322 320 319 316 314 312 309 308 306 305 307 304 298 295 293 292 292 292 291 290

GFSFLT2_850_thetae_060.txt.gz
Theta_e
334 333 328 322 318 316 317 318 311 309 310 313 313 313 313 313 314 315 316 316 317 317 318 317 316 314 310 308 306 306 314 314
332 332 327 322 320 317 315 317 310 310 312 313 313 313 313 314 314 315 316 317 317 318 318 318 316 312 309 307 305 308 311 312
329 327 324 323 322 321 313 312 310 312 313 313 313 313 314 316 317 315 316 317 318 318 318 318 316 311 308 305 306 308 309 310
324 323 324 323 323 318 314 312 312 312 312 313 315 313 319 316 314 315 317 318 318 318 318 318 315 310 307 305 305 303 304 305
324 324 323 320 316 314 313 311 312 312 312 312 313 318 314 314 315 317 318 318 319 319 319 319 316 309 307 304 303 303 304 303
323 321 317 314 312 314 314 316 311 312 313 312 313 316 315 318 318 317 318 318 319 319 319 319 315 309 305 304 301 302 302 302
318 316 312 313 316 319 318 313 311 316 313 313 313 313 313 314 317 319 319 320 319 319 319 318 312 308 306 303 301 300 299 304
316 316 318 319 321 321 317 319 319 312 312 312 312 313 314 318 320 320 321 320 320 319 319 317 310 308 306 301 300 299 299 301
319 321 320 321 320 319 319 312 312 317 313 312 314 318 320 321 322 322 321 321 320 320 319 316 309 307 303 301 301 299 298 298
322 321 321 321 321 318 320 316 312 315 315 319 322 323 322 323 323 323 322 321 320 319 317 311 307 305 304 304 303 300 298 298
322 320 319 323 317 313 313 314 313 320 324 324 324 324 323 323 323 323 322 320 319 319 316 309 307 306 305 306 305 303 301 300
323 322 323 320 319 314 312 315 317 323 323 325 325 324 322 322 323 323 322 320 318 317 313 308 307 307 305 306 306 304 303 302
325 325 325 325 324 317 320 320 321 320 323 324 323 321 322 323 323 323 321 318 318 318 310 308 308 307 307 307 305 303 303 302
325 327 327 324 324 321 318 317 321 322 323 321 322 323 323 324 323 323 320 316 318 315 309 309 308 308 307 305 308 305 303 302
326 327 328 326 327 324 321 321 321 320 321 319 323 323 323 324 323 321 319 318 316 310 308 309 309 306 305 304 307 307 304 302
327 327 328 328 326 326 323 320 320 321 321 321 323 323 324 323 321 320 319 317 312 309 309 308 307 305 304 306 304 302 302 301
328 327 327 328 327 326 326 323 320 323 323 322 323 324 323 321 319 319 318 316 311 308 309 307 306 305 304 302 301 301 300 299
327 326 327 327 326 326 326 326 325 324 321 322 323 324 323 321 319 318 316 311 310 308 308 308 306 307 308 306 297 298 298 298
328 327 328 327 327 326 327 327 326 323 321 322 323 324 324 323 319 317 314 311 309 308 307 305 306 308 307 295 296 297 296 296
328 326 328 328 327 326 327 326 325 323 321 321 322 324 325 321 319 316 313 311 309 307 305 306 306 306 302 299 295 296 296 296

GFSFLT2_850_thetae_066.txt.gz
Theta_e
331 328 330 327 325 325 321 312 309 311 313 318 319 317 318 317 315 315 315 317 318 316 313 310 308 307 307 314 316 317 318 318
327 325 325 326 326 320 317 316 312 312 316 319 319 316 316 315 315 315 316 318 318 318 315 310 308 307 309 312 313 314 315 316
325 327 326 325 324 323 319 316 317 317 320 319 317 316 315 315 315 316 317 318 319 319 318 311 309 308 308 309 310 310 311 313
327 326 325 325 324 323 323 316 313 316 318 317 315 314 314 315 316 317 318 318 319 319 316 313 311 310 309 308 307 308 307 307
328 326 325 326 326 323 319 313 318 318 316 314 314 314 315 316 316 317 318 318 319 319 317 315 311 310 308 308 307 307 306 306
325 326 325 323 322 320 315 316 320 316 315 314 315 314 315 316 315 317 318 318 319 319 318 318 312 309 309 308 306 306 306 306
324 322 322 322 321 317 314 319 317 315 314 315 315 314 317 315 316 317 318 318 319 317 318 318 314 310 310 308 307 306 306 309
321 322 322 321 319 318 316 320 315 316 317 317 314 316 318 318 320 319 319 319 318 317 318 318 313 310 309 307 307 306 305 309
321 321 320 319 318 316 316 317 315 316 321 317 316 320 321 321 321 320 319 319 318 316 316 314 313 309 309 309 308 308 307 305
320 320 316 315 315 316 316 315 317 321 319 315 314 320 322 322 321 321 320 319 318 317 317 318 312 309 309 308 308 308 307 307
316 315 314 316 319 316 322 319 320 319 317 314 314 318 320 320 322 322 320 319 319 318 318 314 312 310 309 309 309 308 307 306
315 317 321 322 321 323 322 321 316 315 317 320 320 316 316 319 323 323 322 321 320 319 316 316 313 312 311 309 309 310 309 307
320 321 322 322 319 321 321 321 318 318 319 321 323 323 321 322 321 322 323 322 320 320 318 316 315 312 311 311 312 311 310 308
323 323 322 322 323 321 321 321 320 320 321 322 326 324 324 324 324 325 323 321 319 319 318 318 317 312 311 312 312 311 310 308
323 322 322 322 324 322 321 321 320 321 321 323 325 325 323 324 324 324 323 322 321 318 318 318 317 313 313 312 311 311 309 308
324 323 322 324 325 325 324 321 320 321 321 322 323 324 324 323 324 323 323 323 321 318 318 317 316 313 313 311 310 310 310 309
325 326 325 325 325 325 325 322 321 320 321 322 324 326 325 323 323 323 323 322 322 321 316 316 315 313 312 312 309 309 310 308
326 326 326 327 327 327 326 326 323 321 321 322 324 325 324 322 324 322 321 319 322 321 316 314 314 313 312 311 309 309 309 304
328 327 327 327 327 328 327 328 327 324 323 323 323 324 321 319 320 322 320 321 322 319 313 314 312 312 311 308 307 308 308 305
330 330 328 328 328 329 329 329 329 329 325 325 324 325 320 321 321 321 321 321 322 318 315 312 312 311 310 305 306 307 307 306

GFSFLT2_850_thetae_072.txt.gz
Theta_e
333 333 332 328 325 329 330 322 321 321 327 327 321 317 314 314 315 313 311 309 308 309 317 317 316 318 318 319 317 315 313 308
332 332 330 330 325 325 324 320 325 326 327 328 321 315 314 315 316 315 312 310 309 308 311 316 316 315 316 316 315 314 312 308
328 328 328 327 326 324 322 319 320 325 328 327 320 315 315 316 317 317 316 311 309 308 308 312 315 315 314 313 311 311 309 307
328 326 324 325 325 322 322 319 318 321 324 325 321 315 315 317 318 318 318 315 310 309 308 310 312 312 311 311 309 308 307 306
327 326 324 323 322 321 322 320 318 320 320 319 318 315 315 317 318 319 319 318 315 312 311 310 310 309 308 309 308 307 307 307
325 325 324 322 321 321 322 320 317 318 320 318 315 315 315 317 318 318 319 319 318 318 316 310 309 309 308 308 308 307 307 308
324 324 324 323 321 321 321 319 322 319 316 317 315 315 316 316 317 318 318 319 319 319 319 317 309 309 307 307 308 307 308 309
324 325 324 322 322 319 315 318 315 316 319 317 315 315 315 316 316 317 318 319 319 319 319 319 313 309 309 307 309 308 309 308
323 324 325 324 321 318 318 321 317 319 316 315 315 315 314 314 314 316 318 318 319 319 319 319 317 311 310 309 310 309 310 308
323 323 324 323 321 317 316 320 319 316 314 316 317 316 314 314 313 314 317 319 320 319 319 319 319 317 310 310 310 310 310 308
322 323 323 322 318 314 319 319 318 315 315 316 317 317 315 314 313 315 318 319 319 320 319 319 319 317 313 310 309 310 310 309
322 322 322 320 315 317 320 318 316 316 316 320 318 317 314 314 314 314 317 318 320 320 320 319 319 318 314 312 311 310 309 309
322 321 320 319 315 318 318 317 318 319 319 318 315 315 314 313 314 315 318 318 320 321 320 319 319 316 313 311 310 310 309 309
321 321 319 319 316 315 316 316 317 317 315 313 313 313 313 313 313 314 313 317 320 321 321 320 319 316 313 311 310 309 309 309
320 317 316 316 314 316 316 318 317 316 315 315 313 313 315 315 315 313 312 315 320 322 322 321 320 317 314 312 311 311 311 311
316 315 315 314 314 313 313 314 315 317 317 316 314 315 314 316 319 320 320 320 321 322 323 322 320 318 316 314 313 312 311 310
317 316 316 314 315 315 319 320 320 319 318 317 314 314 317 319 320 323 323 323 322 322 321 322 321 319 318 317 315 312 312 310
318 319 320 319 318 318 321 322 320 319 316 316 316 314 316 320 322 322 324 324 323 322 321 321 322 320 319 317 316 315 312 312
319 319 319 318 319 320 319 319 316 313 314 317 318 319 319 320 321 322 323 323 322 322 321 322 322 321 319 317 316 315 313 313
322 322 320 319 318 318 316 318 319 321 322 322 320 319 320 320 321 322 322 322 324 322 321 321 322 321 319 318 315 314 313 312

GFSFLT2_850_thetae_075.txt.gz
Theta_e
332 330 327 327 325 327 327 327 326 326 326 323 321 316 313 312 311 310 313 318 319 317 317 319 319 319 318 315 313 310 305 304
331 330 329 330 327 330 326 329 328 324 324 323 317 313 313 312 310 309 310 318 317 317 316 317 317 317 316 315 312 310 306 304
330 330 330 329 327 326 327 327 326 323 322 321 315 314 314 312 310 309 308 312 316 316 316 316 316 315 313 312 310 308 307 304
328 328 328 328 324 323 324 325 322 324 319 319 314 314 315 313 311 309 308 308 309 314 314 315 315 313 312 310 308 308 307 306
326 325 325 325 324 323 322 321 324 322 321 316 314 315 316 316 315 312 310 309 309 309 311 312 312 310 309 309 308 307 307 308
327 325 324 324 323 322 322 322 321 321 322 315 315 316 317 318 318 318 316 313 311 310 309 309 310 308 308 308 307 307 308 308
325 324 322 321 322 322 321 320 320 322 321 316 315 316 317 318 319 319 318 318 318 316 311 310 310 310 309 308 308 308 308 309
324 324 322 322 322 321 318 318 321 320 320 316 315 315 316 318 318 319 319 319 319 319 319 314 309 310 309 308 309 309 309 309
324 324 322 321 321 321 319 317 319 320 317 314 316 315 316 317 317 318 318 318 319 319 319 319 312 309 309 309 310 310 310 308
324 324 323 321 321 319 318 318 317 316 315 315 317 315 316 316 316 317 318 318 319 319 319 319 317 314 310 310 310 311 311 309
323 324 322 321 320 318 320 321 319 316 316 319 315 315 315 314 315 316 317 318 319 320 319 318 319 318 316 311 310 310 310 311
322 322 321 320 316 318 322 322 318 320 318 315 316 316 316 315 314 315 315 318 319 319 320 319 319 318 317 313 311 310 310 310
322 323 322 321 319 318 321 321 319 317 315 316 317 318 316 315 317 317 315 315 317 319 320 319 319 318 315 312 310 309 309 309
321 322 323 322 319 317 320 321 320 318 316 317 317 315 316 317 317 315 315 314 315 318 320 320 319 318 316 313 311 310 310 310
321 322 322 322 319 318 321 320 319 320 318 318 318 316 317 317 316 314 314 314 314 315 319 321 321 319 318 315 311 312 312 311
321 322 321 321 317 317 319 318 319 318 317 316 315 314 315 315 314 313 315 315 315 315 317 321 321 321 319 317 314 314 314 313
321 321 321 320 317 316 316 317 316 315 315 315 314 315 313 313 313 313 316 320 320 319 320 321 322 322 321 320 317 316 314 313
318 318 318 319 317 316 317 316 315 315 314 314 314 317 315 314 314 313 316 320 322 322 322 322 322 322 322 320 319 317 317 315
317 316 317 316 317 315 314 314 314 313 314 315 316 316 315 313 313 315 318 320 321 321 322 322 322 322 321 321 320 318 316 316
317 317 316 315 315 314 314 313 314 315 317 317 316 315 313 314 316 316 318 319 322 322 322 323 322 321 321 321 319 318 316 316

GFSFLT2_850_thetae_078.txt.gz
Theta_e
331 331 331 329 330 329 329 328 327 328 328 318 320 319 314 312 312 312 316 317 317 318 319 319 317 315 313 310 306 305 305 305
330 330 332 330 327 326 326 327 328 328 327 318 320 315 313 312 311 314 317 317 317 318 319 319 317 315 313 310 307 304 305 305
331 329 327 327 327 328 326 328 328 329 323 319 319 313 312 311 312 316 318 317 316 317 317 317 317 314 312 309 307 305 305 306
330 329 327 327 329 326 326 327 328 324 323 322 314 312 311 310 315 317 317 316 316 315 315 315 314 312 310 308 307 307 305 306
328 329 328 329 328 324 329 328 327 322 320 318 313 312 311 309 309 314 316 315 315 315 315 314 313 311 309 308 307 308 307 305
327 326 327 325 324 326 327 323 322 320 319 317 313 312 311 309 307 307 308 311 312 313 313 312 310 309 308 308 308 308 308 306
326 325 324 323 323 325 325 326 322 321 319 317 314 314 312 309 308 307 307 308 309 310 310 310 310 309 309 308 309 309 309 309
325 324 323 322 323 323 323 323 322 319 318 315 316 317 317 316 311 308 308 309 310 311 310 310 310 310 309 308 309 309 309 309
325 324 322 322 322 322 322 323 321 318 319 315 316 317 318 318 318 318 316 316 317 317 314 310 310 310 309 309 309 309 310 309
324 324 321 320 321 321 321 321 320 320 319 315 316 315 315 316 317 318 318 318 319 319 318 318 313 310 310 309 309 310 310 310
324 323 322 320 319 320 320 321 322 319 318 316 315 315 317 317 318 318 318 318 318 318 318 318 317 315 311 310 309 309 309 310
323 323 322 320 320 319 319 321 322 318 317 314 315 315 316 316 317 317 317 318 318 319 319 318 318 317 317 315 313 310 310 310
322 323 322 320 320 320 319 318 319 318 316 315 318 316 315 316 316 316 316 317 318 319 319 319 319 318 317 317 315 313 314 314
322 322 322 321 320 320 322 320 318 317 316 316 320 315 315 315 315 315 316 317 317 318 319 319 319 318 318 318 316 315 316 315
322 322 322 321 320 319 319 320 320 317 318 319 318 317 317 316 315 317 318 318 317 317 316 318 319 319 319 318 315 316 318 316
321 322 322 322 320 317 318 319 320 319 318 315 314 316 316 316 316 318 319 319 316 315 315 315 318 320 319 319 318 319 317 315
321 322 322 322 322 320 318 320 319 317 317 316 315 317 316 316 315 316 316 317 316 317 317 316 316 318 321 321 320 319 319 315
321 321 321 321 321 321 318 317 318 318 315 317 317 317 315 314 314 315 315 316 316 316 320 321 320 320 321 321 321 319 319 319
320 321 321 321 320 320 317 316 316 317 316 316 315 315 314 315 316 315 314 314 315 315 319 321 322 322 322 322 321 320 321 318
316 316 319 319 320 320 317 316 317 318 317 315 314 314 314 313 315 316 316 314 313 314 317 320 321 321 322 322 321 320 321 319

GFSFLT2_850_thetae_081.txt.gz
Theta_e
332 331 330 326 326 326 325 324 324 327 326 323 325 325 325 322 319 317 314 316 318 318 317 312 312 308 305 305 305 305 307 314
331 331 330 329 330 329 326 329 326 326 329 324 324 324 323 319 317 314 316 317 319 319 317 315 313 310 306 305 305 305 307 308
329 331 331 329 329 330 328 328 328 330 330 327 323 322 320 316 313 316 316 317 319 319 318 315 313 310 307 305 305 306 306 312
330 331 330 330 329 329 328 327 328 328 330 325 320 317 315 314 314 316 317 317 318 319 318 315 312 309 307 306 306 306 306 308
329 329 329 327 328 327 327 327 327 329 326 322 318 315 313 313 315 313 317 317 319 318 317 314 311 309 308 308 308 305 306 307
328 329 328 327 326 328 327 326 328 329 323 318 317 313 312 312 315 315 316 315 315 315 314 313 310 309 308 308 308 307 306 306
326 327 327 328 327 325 327 327 326 323 319 319 314 311 311 314 313 315 316 315 314 314 313 311 309 309 308 308 308 308 307 306
325 326 325 324 324 326 325 324 324 320 321 315 312 310 309 309 311 310 314 313 312 312 311 310 309 309 308 308 308 309 309 308
324 325 325 323 322 324 324 322 320 319 317 313 311 309 308 308 309 308 308 310 310 309 309 309 309 308 308 308 308 309 309 309
324 325 323 322 322 324 322 322 319 317 314 314 312 313 316 310 316 316 310 313 313 312 311 309 309 309 308 308 309 309 310 309
323 323 322 322 323 323 322 321 320 316 314 315 316 316 318 317 318 312 314 318 318 318 317 312 310 309 309 308 309 309 309 310
323 323 322 321 322 322 322 320 317 316 316 315 316 318 318 317 315 317 318 318 318 318 318 315 313 315 315 311 310 309 309 309
323 322 322 321 320 321 322 320 316 320 316 315 316 316 316 317 317 317 318 318 318 318 317 317 315 317 317 316 315 313 312 310
322 323 323 322 320 320 321 322 318 321 318 316 316 315 316 317 317 317 317 317 317 318 318 317 316 317 317 317 315 316 316 315
322 322 322 322 320 320 320 321 320 319 315 315 315 317 316 315 316 316 315 315 316 318 318 318 319 319 318 318 317 318 318 318
322 322 322 322 321 320 321 320 320 318 316 315 314 315 318 315 315 315 314 315 317 317 318 318 318 318 319 319 319 319 318 318
322 322 322 321 321 321 320 320 318 318 317 315 315 316 318 315 316 316 315 317 318 318 319 318 318 318 318 318 319 319 319 318
321 321 322 322 322 321 320 320 319 317 316 315 316 319 317 317 316 316 316 317 316 316 318 318 319 320 319 319 319 319 320 319
321 321 322 322 322 322 320 319 319 318 316 317 319 317 317 315 316 316 315 315 315 316 317 317 318 319 320 321 321 321 321 319
320 320 321 321 322 322 321 318 319 320 319 318 317 315 314 314 316 316 314 316 317 317 317 317 317 318 319 320 321 321 317 319

GFSFLT2_850_thetae_084.txt.gz
Theta_e
330 335 332 329 331 330 328 327 328 327 328 326 330 327 327 330 330 328 327 326 315 310 309 306 306 305 305 306 309 319 319 319
333 333 331 329 331 330 327 326 328 329 328 328 330 327 329 330 328 326 319 321 315 314 310 308 306 305 305 306 307 317 319 318
332 333 330 329 328 328 327 326 326 325 326 327 327 324 327 328 326 318 316 318 317 314 313 310 306 305 305 306 315 318 319 318
329 332 331 330 329 328 328 329 325 328 327 327 327 324 327 327 321 316 317 318 317 316 314 310 309 307 306 310 317 318 319 318
329 330 329 331 331 329 328 329 328 328 327 327 326 324 325 324 318 318 318 319 318 317 314 314 316 315 313 316 317 317 318 318
328 328 329 328 328 329 329 329 328 327 328 329 324 323 324 322 322 318 318 320 319 318 317 318 316 315 315 315 316 317 317 317
327 327 328 328 327 327 327 327 327 327 327 326 323 318 318 316 317 318 318 320 320 320 319 317 311 314 313 315 315 316 317 316
326 326 326 326 327 327 326 324 326 327 325 322 319 316 314 315 317 317 317 317 321 320 316 313 313 314 314 311 315 315 316 317
325 325 326 325 324 324 326 327 325 326 321 317 315 313 313 314 316 316 315 314 314 314 313 312 315 313 313 312 315 315 316 316
324 324 324 323 323 324 324 322 323 318 316 315 314 313 312 316 315 315 313 312 312 311 309 315 314 313 313 313 314 315 315 315
324 324 323 322 322 324 323 321 318 317 314 313 313 312 313 311 309 311 312 310 310 309 311 313 312 313 313 313 313 314 313 314
324 324 322 322 323 323 322 319 316 313 313 311 309 308 308 314 316 317 317 318 312 311 311 311 310 311 310 310 311 312 313 313
324 323 322 321 322 322 321 318 314 314 313 311 312 316 309 314 317 317 317 317 316 317 318 316 312 311 311 311 311 311 311 310
323 323 323 321 321 322 321 320 315 315 314 314 315 311 310 316 316 317 317 318 319 319 318 318 317 315 315 317 317 315 314 315
322 323 322 322 321 321 322 320 316 315 314 314 315 315 311 316 316 317 317 319 319 318 318 319 318 316 316 319 321 321 320 316
321 323 322 322 321 321 321 321 316 318 316 314 316 316 316 316 316 317 316 317 318 317 317 318 319 319 317 317 319 320 320 321
322 322 322 322 321 321 321 320 317 318 319 316 316 316 317 316 316 316 316 316 316 316 316 317 318 320 320 319 318 318 318 319
321 322 321 322 322 321 321 321 319 319 320 317 315 315 317 318 318 315 315 315 315 315 317 318 319 320 320 321 320 320 320 320
322 322 322 322 322 321 321 320 320 318 319 316 315 316 317 320 318 316 315 316 315 316 318 318 318 319 319 320 321 321 321 321
320 321 325 323 322 322 321 320 322 320 319 316 316 317 317 320 319 317 317 317 317 318 317 317 318 317 318 320 320 320 319 319

GFSFLT2_850_thetae_087.txt.gz
Theta_e
323 326 333 333 334 333 331 329 326 328 328 327 327 327 326 327 327 326 327 317 312 311 307 307 307 308 311 318 319 321 321 321
325 327 335 334 333 332 331 330 330 328 328 327 326 331 328 323 320 320 325 315 310 307 306 306 306 306 308 313 319 320 321 320
325 328 333 333 332 331 329 328 328 329 328 325 329 329 327 329 329 328 327 314 310 306 306 306 306 306 307 316 320 320 320 320
325 328 331 333 331 330 330 329 327 327 328 327 325 330 329 329 329 327 324 315 311 309 307 306 306 306 312 319 320 320 320 319
325 327 331 330 332 330 328 329 329 328 328 325 327 327 326 329 328 326 321 316 312 311 308 309 314 313 317 319 320 320 320 319
325 328 328 329 330 329 329 329 331 330 327 328 327 328 326 328 323 323 318 316 315 312 314 317 316 316 317 319 319 319 320 318
326 327 327 328 328 327 329 329 330 330 328 328 327 327 324 325 320 322 319 318 316 316 320 319 318 317 318 318 319 319 319 318
326 326 327 327 328 328 328 328 329 329 328 328 327 325 323 322 321 322 322 321 319 320 320 319 317 317 318 318 318 319 319 318
324 325 326 326 326 326 327 327 326 326 327 327 327 324 323 319 318 322 323 322 321 321 319 317 316 316 317 317 317 318 318 319
325 324 324 325 325 324 324 325 326 327 327 324 325 321 319 314 315 322 323 323 321 320 318 316 316 316 316 317 317 318 318 319
325 324 324 324 323 325 324 325 322 325 325 324 321 319 314 313 317 320 321 317 316 317 316 316 316 316 316 316 317 317 318 318
324 325 324 322 323 323 322 321 321 320 319 317 315 312 312 314 316 315 314 313 314 311 313 316 315 315 315 315 316 316 317 317
324 324 324 322 323 322 320 318 315 314 315 314 312 313 315 315 315 313 315 313 311 310 314 314 313 314 313 314 314 315 315 316
324 324 323 321 323 321 318 316 314 313 313 312 313 312 314 311 315 316 316 313 313 313 316 315 314 313 315 317 317 316 315 315
324 323 322 323 322 322 320 316 314 314 314 313 312 312 313 314 317 315 315 317 317 318 318 318 318 317 318 321 322 322 321 317
322 323 323 322 322 322 320 317 315 314 314 309 312 312 313 315 316 317 315 318 319 319 320 321 320 320 319 319 320 322 322 321
323 323 323 322 322 322 321 317 314 313 313 311 314 313 312 309 314 317 318 319 319 320 321 319 321 321 321 320 320 320 320 320
323 323 323 322 322 321 321 321 316 315 314 314 315 315 314 313 313 316 318 319 321 321 318 318 318 320 320 321 321 321 320 320
323 322 323 323 323 321 321 321 319 316 315 315 315 314 316 316 317 319 320 320 321 318 316 320 318 318 319 321 321 321 321 321
324 323 322 322 323 322 321 321 320 318 321 317 315 315 316 317 318 319 320 320 320 319 319 321 321 320 318 318 320 320 320 320

GFSFLT2_850_thetae_090.txt.gz
Theta_e
323 323 323 326 331 335 335 332 331 329 326 325 324 330 330 328 331 331 327 325 315 312 310 310 311 319 320 321 321 322 322 321
325 327 331 332 331 333 334 333 331 329 327 328 325 328 329 329 328 328 328 321 311 309 309 309 309 315 319 321 321 322 321 320
327 331 336 336 333 332 332 331 331 330 326 328 327 328 328 329 327 328 326 314 311 307 307 307 308 312 318 320 321 320 320 319
332 332 337 334 334 332 331 331 330 329 329 329 326 329 330 329 326 326 322 313 307 306 306 307 308 309 319 321 320 320 320 319
330 322 327 335 332 333 331 329 328 328 327 326 327 326 326 325 326 327 318 309 307 306 306 306 306 316 320 321 321 320 320 318
329 323 327 328 333 332 331 329 328 329 328 327 327 324 327 329 325 327 316 311 307 306 306 307 308 318 320 320 321 320 319 316
326 324 326 327 330 329 330 330 329 328 328 328 326 327 328 326 327 326 316 310 309 308 316 313 310 318 319 319 320 320 319 314
327 328 326 327 328 328 328 329 329 329 330 329 328 327 327 324 325 324 316 312 310 318 318 317 316 318 318 319 319 319 319 312
329 328 326 327 327 327 327 329 328 329 329 329 328 327 327 323 324 322 316 314 317 321 319 318 318 318 318 318 319 319 319 316
328 328 325 325 326 326 326 327 327 327 327 327 327 328 326 324 321 319 318 318 321 321 319 317 316 318 318 318 318 319 319 318
326 327 324 324 324 324 324 324 324 324 325 325 328 328 325 320 321 320 321 321 322 321 317 316 316 316 317 317 318 318 318 319
325 326 324 324 324 324 324 325 325 326 326 327 325 326 323 322 319 318 322 321 321 320 316 316 315 315 316 316 318 318 317 318
325 325 323 324 323 323 323 323 323 323 323 323 322 323 321 316 319 319 318 322 317 316 316 316 314 314 316 316 316 317 317 317
323 323 323 323 323 323 322 321 320 320 318 318 320 318 315 315 319 318 318 314 312 315 315 314 314 315 315 314 315 315 316 317
324 323 323 322 322 321 321 319 319 320 320 320 320 317 315 314 314 314 313 314 315 312 314 315 313 314 313 315 318 319 317 316
324 323 322 322 322 321 320 318 316 315 316 316 314 313 314 315 313 313 312 316 315 311 314 314 316 316 316 319 321 322 321 320
324 325 322 323 322 320 317 315 315 315 314 313 313 313 315 315 316 315 315 316 314 316 318 319 319 319 319 319 319 320 320 321
324 322 322 322 322 321 318 317 317 315 312 313 313 312 313 314 317 317 315 315 317 318 319 319 320 321 321 321 320 318 320 320
324 323 323 322 321 321 321 320 318 317 313 311 310 312 312 313 314 315 318 317 319 320 319 319 320 318 318 319 319 320 320 321
325 324 324 322 321 321 320 321 319 317 314 312 311 312 311 312 313 315 315 319 319 319 320 319 319 315 315 316 315 315 316 317

GFSFLT2_850_thetae_093.txt.gz
Theta_e
322 323 322 325 330 334 336 335 332 332 333 330 326 324 325 328 330 331 329 329 316 312 318 322 324 325 324 323 323 322 322 321
322 323 324 325 327 331 334 335 334 331 330 326 326 324 326 331 328 329 329 329 319 312 313 323 324 322 321 321 322 322 322 321
324 324 336 336 330 331 332 333 332 331 329 327 327 324 325 329 328 327 328 328 316 311 311 318 322 321 321 322 321 321 321 317
332 325 334 332 332 332 332 332 331 330 329 328 327 327 328 329 329 327 326 325 311 309 310 316 319 320 321 320 320 320 318 317
333 330 330 331 332 333 331 331 330 330 329 328 328 326 328 327 328 324 326 319 309 308 309 312 318 320 320 321 320 320 320 319
334 332 322 328 330 330 330 330 330 329 328 327 327 325 329 329 328 324 325 313 307 307 308 311 317 320 320 321 320 320 320 319
332 331 323 326 330 328 330 330 329 328 328 327 327 325 326 326 322 324 317 307 306 307 307 308 319 320 320 321 321 320 319 315
331 330 323 325 329 330 330 330 330 329 328 328 327 327 326 324 320 324 311 306 306 306 306 316 319 319 320 320 320 320 319 315
330 329 324 325 327 329 328 328 329 331 328 328 328 327 327 325 321 325 311 307 306 309 307 318 318 318 319 319 320 319 319 313
329 329 324 323 326 327 327 327 328 328 330 328 328 327 327 324 322 325 312 308 314 317 313 312 317 317 319 319 319 319 318 316
329 328 324 327 326 325 325 326 327 327 330 327 328 327 328 325 323 323 313 319 319 319 318 318 317 317 318 318 319 319 319 317
329 328 323 325 326 323 324 324 325 326 326 327 327 327 327 325 324 320 313 320 321 320 318 317 317 317 317 317 318 318 318 318
329 327 325 323 322 322 323 323 322 323 323 324 325 326 327 325 324 318 315 320 321 319 317 316 317 316 317 318 318 318 318 318
328 326 323 322 322 323 321 322 323 324 324 325 325 326 326 324 320 318 319 320 321 318 316 316 315 314 314 316 317 318 318 317
328 325 322 322 322 323 322 322 322 322 321 322 322 323 325 321 319 321 321 318 321 316 316 314 315 314 316 316 315 315 316 317
328 324 323 321 321 322 322 322 320 319 320 319 319 321 321 321 320 318 316 321 318 315 315 314 313 315 315 315 315 318 317 316
328 323 321 321 320 321 321 321 320 319 320 320 320 320 318 317 317 317 316 315 313 314 315 315 315 315 313 314 318 321 321 320
327 323 321 321 321 322 321 321 321 320 319 320 319 319 318 317 317 316 314 313 314 315 312 312 314 314 313 315 319 320 320 320
326 323 321 321 321 322 321 319 318 318 318 317 316 315 315 315 315 314 314 314 315 316 313 314 316 318 319 318 319 320 318 318
327 324 321 321 321 321 320 317 316 317 317 315 313 314 315 314 314 314 313 314 315 315 317 318 319 319 317 319 321 321 320 319

GFSFLT2_850_thetae_096.txt.gz
Theta_e
321 322 322 323 329 333 336 334 335 334 335 334 333 331 329 326 325 331 331 329 325 321 321 320 324 324 323 323 323 322 321 318
321 322 322 322 325 332 336 335 334 333 336 335 332 328 326 325 327 327 331 328 320 321 323 325 325 325 325 323 322 321 321 318
322 322 322 322 324 329 335 334 334 333 333 332 327 326 325 327 326 328 328 328 320 318 325 325 325 324 323 324 322 321 321 318
328 329 326 323 324 328 336 335 332 332 331 328 326 325 326 329 328 327 325 328 319 317 325 324 321 321 321 322 322 321 319 312
329 331 328 324 325 328 330 334 333 332 331 328 328 326 324 327 327 327 326 328 317 321 326 323 320 321 321 322 321 319 317 310
330 331 331 328 321 327 328 329 331 330 329 328 327 328 326 328 328 329 322 328 315 319 324 321 319 321 320 320 319 319 319 317
331 332 332 328 321 327 328 327 328 329 329 328 328 327 326 326 327 326 319 326 313 314 322 320 320 320 321 320 320 320 319 317
330 332 331 327 322 324 326 328 329 329 328 328 327 327 326 326 327 322 322 320 310 310 318 319 320 320 321 320 320 319 319 314
330 331 330 328 321 324 327 327 329 328 328 328 328 327 326 327 327 323 323 313 308 309 314 319 319 320 321 320 320 319 319 313
331 330 329 327 322 326 327 329 328 328 329 328 327 327 326 326 322 324 313 307 307 308 313 317 320 319 319 320 320 319 318 314
330 330 329 327 321 324 328 328 327 328 328 328 328 328 326 324 320 321 310 306 306 307 313 319 320 319 319 319 319 319 318 313
330 330 328 326 319 323 326 325 326 327 328 328 328 328 327 325 320 324 310 306 307 307 318 318 318 318 318 319 319 319 318 316
330 329 328 326 320 325 323 324 326 327 328 327 328 328 327 327 322 322 307 308 311 309 317 315 315 318 318 318 318 318 318 318
329 329 328 326 320 322 322 323 324 324 326 326 327 328 327 327 323 322 310 316 314 316 312 316 317 318 317 317 318 318 318 318
329 328 327 324 319 322 322 324 322 322 322 322 324 327 327 327 325 323 316 320 317 318 318 317 317 317 311 315 317 318 318 318
329 328 327 323 319 322 321 321 322 321 321 322 324 324 326 326 326 322 318 319 318 318 316 316 315 313 314 315 316 316 318 318
329 328 327 320 319 322 321 320 321 321 321 320 323 324 325 326 325 321 317 319 319 317 316 316 313 313 313 315 316 315 315 316
328 327 326 319 320 323 320 319 320 320 319 319 319 320 319 320 323 317 319 315 318 317 316 314 314 314 315 316 315 315 319 319
328 327 324 319 321 322 320 320 320 320 319 319 319 319 320 320 321 320 318 317 315 316 316 314 315 315 314 315 315 315 318 320
328 326 322 318 320 321 320 320 320 320 319 320 321 321 321 321 320 320 319 315 317 315 315 316 315 313 314 315 314 314 316 317

GFSFLT2_850_thetae_102.txt.gz
Theta_e
319 320 320 322 325 328 331 333 334 335 335 332 330 328 328 326 323 322 327 328 326 322 328 329 328 328 328 329 329 328 327 326
320 320 320 322 323 327 330 332 334 334 334 334 331 328 327 327 324 328 328 326 326 327 329 329 326 327 328 328 327 326 325 325
321 321 320 321 322 327 336 335 336 336 335 334 334 332 329 328 329 329 328 327 325 325 327 323 328 327 327 325 322 320 321 324
319 320 320 321 321 322 332 336 338 335 335 334 333 332 329 329 331 331 329 327 327 325 323 327 327 327 323 322 322 321 319 320
319 319 322 323 325 323 325 332 332 335 334 333 331 332 330 330 330 327 327 327 326 324 320 322 326 324 323 323 321 320 319 318
320 320 324 326 326 323 323 329 325 332 333 331 334 328 329 329 327 325 325 326 327 323 320 320 324 323 322 322 321 321 319 316
322 322 325 327 327 327 325 323 323 325 328 328 330 330 328 328 326 325 327 326 326 324 322 326 324 323 324 324 321 320 314 314
324 323 326 328 329 328 327 325 322 324 326 328 328 328 329 326 327 325 327 327 325 321 322 325 325 325 324 322 321 318 313 314
327 324 327 329 329 329 328 326 324 324 325 329 330 330 329 328 326 326 325 326 319 321 322 325 325 322 321 322 320 318 316 313
328 326 327 329 330 330 327 325 325 324 325 326 328 329 328 327 327 326 324 324 318 321 323 325 322 320 321 320 319 319 317 314
327 327 327 329 330 329 327 325 324 323 326 327 327 329 328 327 327 326 326 324 320 320 323 324 321 320 320 320 319 319 317 314
325 328 327 329 330 329 326 324 324 323 325 325 328 328 328 328 327 326 326 326 324 320 323 321 320 320 320 319 319 318 317 313
321 327 328 329 330 329 326 324 325 324 324 324 327 328 327 327 326 326 324 323 319 316 322 320 319 320 320 319 318 317 317 314
320 325 328 329 330 329 327 324 325 323 324 324 325 326 325 325 326 324 324 319 316 319 320 321 319 320 320 319 317 317 316 315
318 324 328 329 330 328 326 322 321 321 323 323 324 324 324 326 326 325 323 322 315 314 320 321 319 320 320 319 317 317 317 316
318 326 328 330 329 328 326 322 319 319 321 323 324 324 325 327 325 325 324 320 314 310 315 321 319 319 319 318 318 317 317 316
321 326 330 330 329 328 326 321 318 320 321 323 323 326 324 326 324 325 324 320 313 310 315 319 318 319 319 318 315 313 314 314
324 328 330 329 328 327 325 320 318 320 321 321 321 322 324 323 325 326 323 320 310 312 314 317 318 319 319 318 318 313 314 314
326 329 329 328 327 326 324 319 319 321 320 320 320 321 322 322 323 324 325 322 319 310 311 316 318 319 319 318 314 312 314 315
326 328 329 328 327 326 322 318 320 320 320 319 319 319 320 321 322 323 323 321 320 311 308 316 315 317 317 316 315 312 313 314

GFSFLT2_850_thetae_105.txt.gz
Theta_e
320 321 322 324 327 331 331 334 334 333 331 330 330 330 331 332 331 330 327 326 324 326 324 325 327 329 327 326 329 329 328 328
322 321 321 322 324 327 330 330 333 334 334 332 330 330 330 331 331 327 326 324 329 329 325 325 327 329 328 327 328 329 328 327
323 322 321 321 323 324 326 331 331 332 335 335 332 330 330 329 328 325 323 328 328 327 324 324 327 328 328 327 329 328 327 326
322 323 322 323 323 324 325 332 336 338 333 333 333 333 331 330 328 325 327 329 328 326 327 327 327 326 328 328 327 327 325 324
321 322 324 324 322 322 323 334 336 335 335 334 333 333 332 330 329 327 329 330 328 326 326 327 325 324 327 327 324 321 321 323
322 321 323 323 323 324 324 323 330 337 335 333 333 334 332 331 329 328 330 329 328 327 326 325 324 322 326 323 321 321 319 321
325 322 321 322 324 326 325 324 326 333 331 331 333 331 331 331 329 327 328 326 326 327 327 325 321 326 324 322 321 320 320 320
328 325 322 321 325 327 326 327 326 330 325 329 331 330 330 326 327 328 327 325 326 327 326 323 319 325 322 322 321 321 319 318
327 328 325 322 325 328 328 328 327 325 323 324 327 325 328 327 328 327 326 325 326 326 327 324 319 324 322 323 322 320 315 316
319 325 328 324 325 328 329 329 328 326 323 324 327 327 327 328 328 327 327 325 324 326 325 320 321 323 324 324 322 319 315 314
318 319 327 327 325 328 329 329 328 326 324 324 326 328 329 329 328 327 326 325 324 324 324 321 316 322 323 321 321 318 317 315
318 317 321 329 327 329 330 330 328 326 324 324 325 326 328 329 328 327 327 325 324 320 320 318 318 323 321 321 319 318 317 316
319 318 319 328 328 329 330 330 328 326 324 322 326 328 327 328 327 327 327 326 324 320 321 319 321 320 321 320 319 318 317 316
318 318 318 325 329 329 330 329 328 327 325 323 326 326 326 327 327 326 326 326 324 320 318 320 321 320 320 320 317 317 317 316
318 319 319 324 329 330 330 329 327 326 327 325 322 323 325 326 326 325 326 326 322 321 319 321 319 319 319 319 317 318 317 316
318 320 319 324 329 329 330 329 328 326 323 325 322 323 324 324 324 324 324 321 320 320 320 321 317 318 319 319 319 318 318 316
317 320 321 322 328 329 330 328 328 324 321 321 320 322 325 325 325 324 324 321 321 320 319 319 317 316 318 319 319 318 317 315
319 321 323 323 327 329 329 328 327 324 319 319 321 322 323 322 323 324 324 323 321 319 319 318 317 316 319 319 319 318 316 314
320 322 326 325 327 329 329 328 326 322 318 318 321 322 323 324 324 324 324 323 323 318 317 316 316 317 319 319 319 316 314 312
321 322 326 325 327 330 328 327 325 321 319 321 321 320 320 322 323 324 323 324 324 318 315 314 314 317 319 319 318 316 314 312

GFSFLT2_850_thetae_108.txt.gz
Theta_e
319 320 322 325 327 331 332 333 333 332 331 330 329 331 333 333 333 332 331 328 328 329 324 328 330 330 329 327 326 327 333 331
320 320 321 324 326 329 332 333 333 333 332 331 331 332 332 333 332 331 331 328 328 326 326 326 327 331 328 327 327 329 331 330
320 320 322 323 325 327 329 332 334 334 333 332 331 332 333 332 331 332 332 328 326 327 329 327 326 328 328 327 328 331 332 331
322 321 322 323 326 332 328 327 331 336 336 335 332 333 335 335 332 331 330 326 325 328 330 329 326 327 326 327 329 331 331 330
327 323 322 323 330 336 333 326 334 335 334 334 335 334 333 331 332 330 328 325 327 328 328 327 325 327 326 326 329 327 329 328
332 325 323 323 336 331 337 324 333 332 331 335 334 332 332 332 332 332 331 330 329 329 328 328 327 327 326 324 326 327 326 326
338 326 325 324 326 330 334 333 327 325 332 334 334 333 333 333 333 331 329 328 329 329 328 328 327 327 325 323 326 325 325 324
338 328 327 326 325 322 323 325 331 325 326 333 331 331 333 332 332 331 329 328 328 329 328 328 326 326 322 323 325 325 324 323
335 328 328 328 326 323 323 325 326 326 326 331 331 331 327 333 332 331 328 330 328 327 327 327 327 324 321 324 324 324 324 322
331 328 324 329 329 327 323 325 327 328 327 326 325 327 329 329 327 329 329 329 327 326 326 326 327 322 324 323 323 324 322 320
327 329 319 324 332 331 325 325 327 328 328 327 323 323 327 325 325 328 328 328 326 326 324 324 326 321 323 323 323 323 321 319
322 326 321 324 333 331 327 325 328 329 329 328 325 323 325 327 327 329 329 327 326 325 325 324 324 321 323 323 323 322 322 320
317 318 320 326 328 328 328 326 329 329 329 328 325 323 324 326 328 328 328 327 327 324 322 321 321 322 320 322 322 321 321 320
319 319 323 327 325 325 328 327 329 330 330 328 325 322 322 326 327 327 327 326 326 323 323 322 320 315 319 321 320 320 320 320
323 325 327 329 329 327 330 328 329 330 330 328 327 324 324 327 326 327 327 325 326 324 323 322 318 315 320 320 318 319 319 319
323 326 328 329 329 328 330 329 329 330 329 328 328 325 324 325 326 326 325 325 325 325 324 320 317 318 321 321 320 319 320 320
324 326 328 327 329 329 331 330 330 329 328 327 325 328 324 324 324 324 324 324 324 324 320 319 318 320 320 320 320 319 320 319
327 327 327 323 325 331 329 331 331 328 327 326 322 328 325 322 324 324 323 323 324 322 320 319 319 320 319 320 319 319 319 319
326 327 326 323 326 331 329 331 329 328 327 325 321 324 321 322 323 324 324 324 324 322 320 320 318 320 317 318 319 319 318 316
324 327 325 325 324 329 329 326 329 327 326 324 319 320 321 323 324 323 323 323 323 321 320 319 319 319 317 317 316 318 318 317

GFSFLT2_850_thetae_111.txt.gz
Theta_e
319 319 320 322 324 328 331 332 332 330 330 331 331 333 334 333 332 332 331 331 330 328 329 328 329 330 330 329 327 327 331 334
319 319 320 321 322 325 330 332 332 332 331 330 331 332 333 333 333 333 331 331 329 328 329 328 327 328 327 328 327 327 330 330
326 320 320 321 321 322 326 331 332 333 333 332 331 332 334 333 333 332 332 332 330 329 328 327 327 328 327 327 326 330 332 331
339 338 339 324 321 321 323 327 329 331 333 335 332 335 337 336 336 333 332 332 331 328 327 328 328 326 328 327 326 331 331 329
337 341 341 335 338 339 339 328 333 332 336 336 337 338 337 336 336 335 331 331 331 328 326 328 329 327 328 327 326 322 331 329
338 339 341 341 338 338 339 337 336 337 340 335 335 336 336 334 334 333 332 332 331 330 327 330 330 328 327 327 326 324 328 327
338 340 342 342 335 339 338 340 328 339 339 339 336 338 335 333 333 333 333 332 331 331 329 330 329 327 326 327 326 324 327 326
337 340 341 341 340 339 339 339 338 327 332 334 335 334 334 333 333 333 332 331 331 329 329 329 326 327 327 327 325 322 325 325
335 340 340 332 341 340 339 338 338 339 328 331 333 334 333 333 333 332 332 331 330 329 329 328 327 328 327 326 323 326 322 325
330 336 341 333 340 341 338 337 337 337 335 332 327 327 332 332 331 331 332 331 330 329 329 328 328 328 327 325 321 324 323 323
327 332 337 340 340 340 340 337 336 334 335 328 327 327 326 326 332 332 330 330 330 328 329 327 327 327 327 323 323 325 322 323
325 328 333 337 338 340 339 337 335 332 330 327 328 328 326 325 329 329 328 328 329 329 328 326 326 326 326 322 324 323 323 320
322 323 326 333 335 337 338 336 333 329 334 334 332 329 327 323 331 328 327 327 328 328 326 326 325 324 324 324 322 322 322 320
325 325 325 328 333 334 337 335 335 333 329 333 332 331 328 324 328 328 327 328 328 327 324 326 324 324 324 322 322 322 321 319
325 326 326 328 332 334 335 333 334 334 328 329 330 330 328 329 328 327 328 328 326 326 326 325 322 323 323 321 321 321 321 320
327 327 327 329 332 334 331 332 331 332 331 330 331 330 328 327 326 326 328 328 327 325 326 324 322 322 322 320 320 320 320 320
327 329 328 329 331 333 332 331 331 332 331 330 330 330 327 329 326 325 330 327 326 324 324 323 321 321 321 318 319 320 320 319
325 328 329 329 330 332 332 330 332 333 333 332 332 329 328 327 326 326 326 326 325 325 325 323 322 320 319 317 320 320 319 319
323 324 328 329 330 330 331 330 331 333 333 333 330 328 326 325 327 327 323 324 325 324 324 323 322 319 319 319 319 320 319 318
322 324 325 328 329 327 330 330 331 333 332 330 328 326 324 322 326 326 324 324 324 324 324 323 321 318 319 318 318 319 318 318

GFSFLT2_850_thetae_117.txt.gz
Theta_e
320 319 318 317 318 320 325 329 331 331 330 331 334 336 335 333 334 333 331 332 332 330 329 328 327 327 328 330 328 328 330 330
320 319 318 317 317 318 320 323 326 329 330 330 330 332 332 333 333 333 332 332 332 330 330 328 328 325 327 330 328 327 330 329
320 319 319 318 317 318 319 321 323 326 328 330 330 330 330 332 332 332 332 332 331 331 330 329 329 328 327 324 327 327 329 326
323 319 319 319 318 318 319 320 321 324 326 328 329 330 330 331 331 332 332 332 331 331 330 329 328 328 325 326 323 326 329 327
322 320 319 319 319 319 319 319 320 322 324 326 329 330 330 331 331 332 332 332 332 331 331 330 329 327 326 327 324 323 325 329
331 323 321 320 319 319 319 319 319 320 322 324 326 329 331 331 331 333 334 333 333 332 332 331 331 328 327 328 326 324 323 327
333 326 325 325 325 322 322 323 321 323 321 321 321 326 330 333 333 334 334 334 334 333 332 331 331 330 327 328 327 326 324 327
335 332 327 325 326 327 326 328 331 332 331 324 324 326 331 333 334 334 334 334 334 334 332 331 330 329 327 328 327 327 326 325
338 336 334 333 331 332 331 329 336 338 335 333 328 330 332 334 334 335 334 333 333 332 332 331 330 330 327 327 327 326 327 326
333 338 337 336 335 335 335 332 336 338 338 335 330 329 333 334 334 334 333 332 332 331 331 331 330 329 328 327 327 326 327 327
326 334 337 337 336 336 336 335 338 339 339 338 337 332 333 333 333 334 334 333 332 331 331 331 330 329 328 328 326 326 326 326
324 328 333 335 337 337 336 335 339 339 337 337 338 336 333 335 335 335 334 332 331 330 331 331 331 329 328 327 326 326 326 325
322 327 335 337 339 340 338 332 332 339 339 337 335 337 336 336 336 337 335 332 329 329 330 333 330 329 328 328 327 326 325 325
325 332 337 338 338 338 336 331 330 334 339 338 336 335 336 333 339 337 337 332 332 329 328 329 330 329 327 326 326 326 325 324
322 324 327 328 326 328 334 336 336 336 342 339 338 336 335 334 331 337 336 331 331 330 331 327 327 325 327 326 324 324 324 324
323 324 324 326 330 332 327 328 328 331 335 339 338 336 334 332 332 332 335 330 328 326 327 327 327 327 325 325 324 323 323 323
324 325 325 324 326 328 329 327 329 333 333 338 339 335 332 333 332 332 331 328 328 327 325 324 325 327 326 324 324 324 323 322
324 324 323 324 325 327 328 331 331 332 334 334 334 330 330 331 332 331 331 329 329 327 324 325 323 325 324 324 323 323 323 322
323 323 323 323 324 325 328 329 329 333 332 333 333 330 328 329 330 330 330 330 330 327 322 324 326 324 324 325 323 323 322 321
320 321 320 320 321 320 323 326 330 331 334 332 331 330 329 328 329 330 330 328 328 325 322 323 323 325 323 324 323 323 321 321

GFSFLT2_850_thetae_123.txt.gz
Theta_e
316 317 320 323 325 327 327 328 329 331 333 335 336 336 336 334 332 330 330 330 330 329 328 328 329 330 329 328 328 327 327 328
317 316 319 322 325 327 328 329 329 330 332 335 336 336 336 334 333 332 330 330 330 330 329 328 327 329 329 329 328 328 328 328
317 316 317 320 323 326 328 328 329 330 331 332 333 334 334 333 333 333 332 330 330 331 329 329 328 327 329 329 329 328 327 328
318 318 316 318 319 322 325 327 328 329 329 330 330 330 331 331 331 332 333 331 330 331 330 329 328 327 326 327 328 328 326 327
319 318 318 317 317 318 320 322 323 324 325 327 327 328 329 329 330 331 332 332 331 331 331 330 330 328 327 327 326 326 326 326
319 319 318 318 317 317 317 318 318 318 319 322 325 326 327 327 328 329 330 331 331 330 331 330 330 329 328 328 326 325 325 326
320 319 319 319 318 318 318 317 317 317 318 319 320 321 322 325 326 329 329 330 330 330 330 331 331 330 329 329 327 326 326 325
324 322 320 319 319 318 318 318 318 318 318 319 319 319 320 322 325 328 329 330 330 330 331 331 331 331 331 330 328 327 327 325
328 326 325 321 319 319 319 319 319 319 319 319 320 320 320 322 323 326 328 330 331 332 332 333 333 332 331 331 330 328 327 327
333 333 332 328 322 320 320 319 319 319 319 320 320 321 320 321 323 325 328 331 333 333 333 333 332 333 332 330 329 328 327 327
335 334 334 334 334 327 322 321 321 322 323 323 327 327 325 325 324 326 330 333 334 334 334 333 332 331 331 329 329 329 327 327
336 336 335 335 336 335 330 328 327 328 328 329 332 333 334 332 329 329 332 334 335 335 334 333 331 330 330 330 330 329 328 327
331 328 323 329 336 338 336 333 332 333 333 333 335 336 336 335 334 332 333 335 334 335 334 333 332 330 328 328 328 328 328 328
320 320 320 321 326 330 337 336 335 335 335 335 333 337 337 336 336 336 334 335 335 333 333 332 330 329 327 326 325 326 327 325
320 320 320 320 323 332 338 339 338 337 337 335 334 335 337 338 336 336 336 335 334 332 332 332 330 329 327 326 327 325 324 323
319 319 321 324 330 338 338 339 337 336 335 332 332 330 335 337 337 337 336 335 333 331 332 331 330 329 328 326 325 324 323 323
327 329 332 335 336 339 339 337 335 335 333 329 330 331 333 336 337 336 333 334 334 332 331 332 331 329 327 326 324 324 326 323
330 330 328 332 336 337 336 334 335 334 333 335 336 333 331 333 335 335 331 332 333 332 329 330 332 330 328 325 325 322 323 323
320 322 322 323 325 326 328 329 329 330 331 334 335 336 336 333 333 333 332 330 331 332 329 329 331 331 329 326 324 322 322 323
316 317 318 318 320 321 321 322 322 323 325 327 328 331 333 334 332 331 332 333 333 331 330 329 329 330 329 326 324 322 321 322

GFSFLT2_850_thetae_126.txt.gz
Theta_e
320 319 319 319 323 326 329 331 331 330 331 334 335 335 334 331 329 329 330 329 329 328 327 325 326 326 327 327 327 326 327 327
318 318 320 320 323 328 329 327 327 329 332 335 335 335 335 333 330 329 330 330 330 328 327 327 328 328 327 327 327 327 326 327
317 318 320 324 325 326 327 328 329 331 333 335 336 335 335 334 332 330 330 330 330 330 329 328 327 327 328 327 327 327 327 326
317 318 320 323 326 326 327 329 331 332 332 333 334 335 334 334 332 332 331 331 330 330 330 329 328 327 327 327 327 328 327 325
317 317 318 321 324 326 327 328 329 330 331 330 331 332 333 332 332 331 331 331 331 330 331 330 329 328 327 326 327 327 327 326
318 317 317 319 321 323 324 325 326 327 328 329 329 329 329 330 330 330 329 330 330 330 331 330 330 329 328 327 327 327 325 325
318 318 317 317 318 319 319 320 322 322 323 324 325 325 325 327 328 328 328 328 329 330 330 330 330 330 329 328 328 327 325 326
319 318 318 317 317 317 317 317 317 318 319 319 320 321 322 323 325 326 327 327 328 330 330 330 330 330 330 329 329 328 326 326
320 319 318 318 318 317 317 317 317 317 317 318 319 319 320 322 324 325 326 327 328 330 331 331 331 331 331 330 330 330 328 327
322 320 319 319 318 318 318 318 318 318 318 318 319 320 321 322 324 325 327 328 328 330 331 331 332 332 332 332 331 330 329 328
329 327 324 323 321 319 319 319 319 319 319 320 320 321 322 323 324 324 327 329 328 330 332 333 333 333 332 332 331 329 329 328
333 332 331 329 328 325 322 320 320 320 320 320 321 321 321 324 323 324 326 329 330 331 333 334 333 333 333 332 331 329 329 328
335 334 334 334 334 333 330 326 323 321 321 321 323 325 328 329 330 330 328 329 331 332 336 334 332 332 330 328 326 326 326 326
331 335 335 335 335 335 335 335 334 328 325 326 329 331 332 333 333 334 332 331 332 332 334 333 332 331 329 327 325 327 324 326
328 330 329 333 336 337 338 338 337 335 332 332 333 334 334 334 334 335 335 335 334 332 333 332 330 330 329 328 326 324 323 322
319 320 321 324 335 335 336 336 337 337 336 335 336 335 334 332 332 332 334 336 336 335 333 331 331 331 331 329 328 325 324 323
318 317 318 324 332 334 335 336 336 337 337 336 335 334 333 329 329 333 335 337 334 334 333 332 329 330 331 330 328 327 326 326
322 320 319 323 326 335 338 338 336 334 334 333 333 328 330 329 330 334 336 334 333 331 332 331 330 330 330 332 330 328 327 325
329 332 331 331 333 334 336 335 335 335 333 329 325 323 329 329 329 329 330 332 332 329 330 332 331 329 328 328 331 329 327 324
314 316 317 319 320 323 326 329 329 329 328 327 324 328 330 329 332 333 333 334 331 330 330 330 331 331 329 328 330 331 327 324

GFSFLT2_850_thetae_129.txt.gz
Theta_e
328 327 327 329 331 332 334 334 335 334 334 334 334 331 329 328 328 329 329 327 325 327 326 325 325 325 325 326 326 327 327 328
326 325 327 327 327 329 332 334 334 333 333 334 335 333 331 329 329 329 329 329 328 327 327 327 327 326 325 326 326 326 326 326
324 324 323 323 324 327 331 333 333 332 331 333 334 334 333 332 329 329 330 330 329 328 328 327 327 327 326 326 326 327 326 326
323 322 320 321 323 327 331 333 332 331 332 334 335 335 335 334 331 330 330 330 330 330 329 328 328 327 327 326 325 327 327 326
323 321 319 320 323 327 328 329 329 330 332 334 335 335 335 334 333 332 331 331 331 330 330 329 328 328 327 326 326 327 328 327
324 323 320 320 323 326 326 327 329 331 332 333 334 335 334 334 333 332 332 332 331 330 330 330 329 329 328 327 327 327 327 326
324 322 322 321 323 324 325 326 328 330 331 331 332 332 332 332 332 331 331 331 331 331 330 330 330 330 329 328 328 328 327 326
323 321 320 320 321 323 324 326 327 328 328 329 330 330 329 329 329 330 330 330 331 331 330 330 330 330 330 329 329 329 328 327
322 321 320 320 321 321 322 323 325 325 326 326 326 327 327 326 326 328 329 330 330 331 331 331 330 330 330 330 330 329 329 328
326 322 320 320 320 320 321 321 320 321 321 323 322 323 322 323 324 325 327 329 330 331 331 331 331 331 331 331 331 330 330 329
323 325 321 320 320 320 319 319 318 318 318 319 319 320 320 321 322 324 326 328 329 330 331 331 331 331 331 331 329 329 330 330
319 329 322 321 321 320 321 320 320 319 318 318 319 319 320 321 322 323 325 327 328 329 330 331 331 332 332 331 329 328 329 330
317 328 332 322 322 321 321 319 320 320 319 319 320 320 320 321 323 324 324 323 325 328 329 332 332 332 331 331 330 328 327 326
318 321 333 332 323 321 321 321 320 321 321 320 321 322 322 322 322 324 325 325 326 328 330 332 332 332 331 331 331 328 327 325
316 318 324 335 333 330 328 328 326 326 325 323 322 322 323 326 326 329 331 332 331 329 331 333 332 331 331 331 329 328 326 324
315 321 328 334 335 335 334 334 334 334 333 330 327 325 326 332 332 334 334 332 334 333 333 333 331 331 330 330 329 327 326 325
314 322 332 334 336 336 336 337 337 337 337 337 335 331 332 334 333 334 332 330 332 334 335 335 333 332 330 329 329 329 328 326
313 316 330 334 336 336 337 337 338 338 337 335 336 335 334 333 332 326 324 330 330 330 332 333 334 333 331 329 329 330 330 328
322 322 325 330 334 338 337 337 336 336 335 336 336 334 333 331 327 326 324 326 328 328 329 330 331 331 331 329 329 329 329 330
321 325 326 328 331 333 335 334 333 336 334 334 329 327 324 323 324 323 323 325 328 329 330 330 330 330 331 331 330 328 327 328

GFSFLT2_850_thetae_132.txt.gz
Theta_e
337 337 338 336 334 335 335 336 335 334 333 331 328 328 327 328 329 328 328 325 323 324 325 325 325 325 326 326 326 327 334 334
337 337 337 336 335 335 334 335 335 334 333 332 329 328 328 328 329 329 328 327 325 327 326 325 326 325 326 326 326 326 334 333
341 341 337 335 335 334 335 335 335 335 333 333 331 329 329 329 330 329 329 329 327 327 327 327 327 327 327 326 327 332 333 333
343 342 338 340 340 335 334 335 335 335 334 333 332 336 336 336 334 331 330 329 329 328 327 328 328 330 327 326 330 333 333 332
342 342 340 340 340 337 339 339 337 336 334 333 337 340 340 338 338 332 332 331 330 329 328 328 332 336 335 333 333 332 333 333
340 340 338 339 339 336 333 338 340 340 339 336 339 340 341 340 342 339 339 334 337 334 334 335 336 334 334 334 331 333 333 333
339 338 337 337 338 338 337 338 338 339 339 336 339 340 341 340 342 342 341 339 339 337 336 336 336 333 332 334 334 333 332 332
336 337 336 335 336 338 336 332 337 337 338 331 333 339 340 340 341 341 341 339 339 338 337 336 336 335 334 334 334 333 333 332
331 336 331 326 323 334 335 335 329 328 329 330 332 334 338 337 336 339 340 338 338 338 338 338 336 335 335 334 334 333 333 333
329 333 335 325 322 331 336 336 327 328 329 329 330 332 334 332 333 333 338 336 335 336 337 336 336 335 334 334 334 334 333 332
321 332 335 331 323 323 336 337 329 328 328 328 328 328 330 329 329 328 334 330 330 332 335 335 335 335 335 334 333 331 330 331
315 328 335 331 324 322 329 336 334 336 332 327 327 327 326 327 328 326 327 334 331 329 330 333 333 334 334 333 330 330 329 328
312 320 334 335 331 325 324 327 325 332 333 326 326 323 326 326 324 323 325 334 335 327 329 330 333 332 333 332 331 331 330 328
310 316 332 334 334 329 322 320 322 324 325 322 321 321 323 323 323 332 328 335 334 328 329 331 332 332 332 332 331 330 330 329
309 313 328 334 334 335 327 326 332 333 332 331 331 325 321 322 324 332 334 330 332 328 329 331 333 333 332 332 333 331 331 330
309 312 324 334 335 335 331 326 330 331 329 333 334 332 330 325 325 330 328 326 328 328 330 330 332 333 333 331 333 332 331 330
309 312 320 332 337 335 334 328 326 332 334 334 333 329 331 329 329 332 329 330 332 334 334 334 333 333 333 332 331 330 330 330
314 315 319 330 336 336 336 335 335 337 337 336 336 334 331 328 326 327 331 333 327 325 325 328 330 330 334 333 331 331 330 330
321 327 330 334 337 337 339 339 340 339 338 337 336 336 335 335 330 330 332 330 327 325 323 324 327 327 329 334 334 331 330 330
309 316 329 334 336 337 338 338 336 336 336 335 334 333 338 336 335 334 332 331 327 324 322 323 324 326 327 332 332 332 331 331

GFSFLT2_850_thetae_135.txt.gz
Theta_e
349 339 338 337 337 336 335 335 334 334 333 331 328 327 326 327 327 327 327 326 324 322 323 324 325 325 325 326 326 332 334 334
349 341 338 338 338 337 336 335 335 334 334 332 329 327 327 328 328 328 328 326 324 324 325 325 325 325 324 325 325 327 334 333
348 348 344 341 339 337 337 336 335 334 333 332 329 328 328 329 330 329 328 326 325 326 327 326 326 326 326 326 325 332 334 333
347 347 347 346 344 342 337 336 336 334 333 332 330 333 334 336 332 330 329 327 327 328 327 327 328 330 327 326 325 334 333 333
346 347 347 346 344 343 341 340 338 336 335 334 334 339 339 340 338 332 331 329 328 328 328 327 328 336 335 332 334 335 333 332
345 346 346 346 343 342 341 340 340 340 341 338 339 340 340 339 339 340 337 334 336 333 334 334 335 335 336 335 334 334 333 333
334 345 344 345 344 341 340 339 339 339 341 340 339 341 340 340 341 340 339 338 337 336 336 335 335 335 336 333 334 334 334 332
323 340 343 344 343 341 340 340 340 340 340 340 339 341 341 340 340 339 339 337 338 336 335 335 334 334 334 333 334 333 333 332
319 335 341 342 342 341 340 339 339 340 340 340 340 341 341 339 340 339 339 338 339 337 336 336 336 334 333 333 333 333 332 332
315 320 334 341 341 340 339 339 338 340 339 340 340 339 342 341 340 339 340 338 338 338 337 335 335 334 334 334 333 332 332 331
312 314 322 336 339 340 338 338 338 339 338 340 339 340 339 341 341 340 340 339 338 339 337 335 336 335 334 333 333 332 332 332
312 312 314 333 336 338 337 339 338 338 337 337 340 339 337 340 339 340 338 340 338 338 337 336 336 335 334 334 333 334 333 331
312 311 311 319 336 336 337 339 338 336 337 336 339 335 339 337 339 339 336 340 338 337 337 337 336 336 334 333 333 334 333 333
311 311 312 312 334 336 336 338 337 333 333 338 337 337 334 340 337 338 332 335 338 338 335 336 337 335 334 334 334 333 332 330
311 311 311 311 314 336 335 336 337 336 334 337 338 338 336 331 333 337 336 333 336 337 336 335 334 335 335 334 333 332 331 334
314 311 310 312 312 334 335 336 336 335 332 328 335 332 327 323 330 335 335 337 336 337 335 334 336 333 333 333 332 332 333 332
316 312 310 311 312 322 335 335 336 334 332 327 332 335 333 326 323 325 333 338 335 334 335 335 334 333 332 331 333 333 331 331
313 315 309 310 311 318 335 334 336 334 333 333 333 336 334 335 332 329 334 333 333 331 330 331 325 326 329 331 333 333 333 332
308 312 315 315 315 318 334 333 335 335 333 334 336 336 336 334 335 335 333 333 332 326 324 325 327 323 327 327 328 328 325 331
301 303 308 317 318 325 330 333 335 335 335 336 337 335 333 334 334 334 335 333 329 326 329 329 325 323 327 324 324 324 324 328